CFG144 EDDF-MDPP

Flight info

Callsign CFG144
Flight time 9h 47m
Altitude 34000
Route SOBRA7D SOBRA Y180 DIK UN857 TOLVU DCT RAPOR DCT GIMER DCT ESTOC UT300 ELCOB/N0468F340 UT300 SENLO UN502 JSY DCT LIZAD DCT GAPLI/M082F340 DCT SOMAX DCT 50N020W 47N030W 38N040W/M082F360 32N045W 2843N04909W/M082F380 DCT KEEKA/N0472F380 M597 JANMA DCT POKEG POKEG2S
Aircraft A339/H-LB1/L

Departure

Time 2026-04-17 05:36
Airport Frankfurt Main Airport (EDDF)

Arrival

Time 2026-04-17 15:23
Airport Gregorio Luperon International Airport (MDPP)
Time Latitude Longitude Altitude Speed Heading
2026-04-17 04:59 50.04705 8.56160 364 ft 0 kts 341°
2026-04-17 05:20 50.04694 8.56164 366 ft 2 kts 329°
2026-04-17 05:20 50.04685 8.56172 363 ft 2 kts 316°
2026-04-17 05:20 50.04677 8.56184 363 ft 2 kts 302°
2026-04-17 05:20 50.04671 8.56198 369 ft 2 kts 289°
2026-04-17 05:21 50.04667 8.56214 363 ft 2 kts 286°
2026-04-17 05:21 50.04664 8.56231 365 ft 2 kts 287°
2026-04-17 05:21 50.04659 8.56256 363 ft 2 kts 274°
2026-04-17 05:21 50.04658 8.56282 364 ft 2 kts 260°
2026-04-17 05:22 50.04661 8.56308 364 ft 0 kts 247°
2026-04-17 05:23 50.04660 8.56303 363 ft 4 kts 247°
2026-04-17 05:23 50.04644 8.56242 370 ft 7 kts 251°
2026-04-17 05:23 50.04629 8.56176 366 ft 7 kts 250°
2026-04-17 05:24 50.04613 8.56110 369 ft 6 kts 249°
2026-04-17 05:24 50.04597 8.56047 369 ft 6 kts 249°
2026-04-17 05:24 50.04581 8.55990 369 ft 5 kts 242°
2026-04-17 05:24 50.04557 8.55949 367 ft 4 kts 220°
2026-04-17 05:25 50.04526 8.55926 367 ft 6 kts 207°
2026-04-17 05:25 50.04474 8.55898 367 ft 9 kts 195°
2026-04-17 05:25 50.04410 8.55896 364 ft 10 kts 169°
2026-04-17 05:25 50.04338 8.55935 362 ft 11 kts 160°
2026-04-17 05:26 50.04263 8.55945 363 ft 11 kts 201°
2026-04-17 05:26 50.04222 8.55859 362 ft 10 kts 244°
2026-04-17 05:26 50.04198 8.55768 364 ft 8 kts 249°
2026-04-17 05:26 50.04182 8.55704 366 ft 5 kts 249°
2026-04-17 05:27 50.04171 8.55658 365 ft 11 kts 249°
2026-04-17 05:27 50.04138 8.55518 365 ft 14 kts 250°
2026-04-17 05:27 50.04102 8.55366 367 ft 18 kts 250°
2026-04-17 05:27 50.04059 8.55183 370 ft 17 kts 250°
2026-04-17 05:28 50.04019 8.55015 367 ft 17 kts 250°
2026-04-17 05:28 50.03981 8.54851 371 ft 16 kts 250°
2026-04-17 05:28 50.03939 8.54683 367 ft 17 kts 249°
2026-04-17 05:28 50.03898 8.54518 368 ft 15 kts 250°
2026-04-17 05:29 50.03868 8.54390 370 ft 15 kts 250°
2026-04-17 05:29 50.03816 8.54275 372 ft 10 kts 237°
2026-04-17 05:29 50.03791 8.54189 371 ft 8 kts 249°
2026-04-17 05:29 50.03772 8.54110 373 ft 8 kts 250°
2026-04-17 05:30 50.03750 8.54013 374 ft 11 kts 250°
2026-04-17 05:30 50.03724 8.53902 370 ft 11 kts 250°
2026-04-17 05:30 50.03694 8.53780 369 ft 16 kts 249°
2026-04-17 05:30 50.03654 8.53618 367 ft 17 kts 249°
2026-04-17 05:31 50.03613 8.53451 371 ft 15 kts 249°
2026-04-17 05:31 50.03577 8.53301 370 ft 14 kts 250°
2026-04-17 05:31 50.03545 8.53166 372 ft 12 kts 249°
2026-04-17 05:31 50.03515 8.53042 372 ft 11 kts 250°
2026-04-17 05:32 50.03493 8.52952 377 ft 8 kts 249°
2026-04-17 05:32 50.03471 8.52862 379 ft 16 kts 249°
2026-04-17 05:32 50.03432 8.52718 385 ft 13 kts 247°
2026-04-17 05:32 50.03381 8.52609 383 ft 13 kts 217°
2026-04-17 05:33 50.03335 8.52597 382 ft 1 kts 182°
2026-04-17 05:33 50.03315 8.52596 381 ft 5 kts 182°
2026-04-17 05:33 50.03273 8.52594 379 ft 8 kts 182°
2026-04-17 05:33 50.03242 8.52593 378 ft 0 kts 181°
2026-04-17 05:35 50.03182 8.52596 377 ft 35 kts 179°
2026-04-17 05:35 50.02689 8.52601 372 ft 104 kts 179°
2026-04-17 05:35 50.01759 8.52610 359 ft 160 kts 180°
2026-04-17 05:35 50.00540 8.52625 517 ft 187 kts 179°
2026-04-17 05:36 49.99263 8.52664 1224 ft 178 kts 178°
2026-04-17 05:36 49.98041 8.52741 1957 ft 175 kts 177°
2026-04-17 05:36 49.96782 8.52836 2325 ft 190 kts 176°
2026-04-17 05:36 49.95406 8.52942 2584 ft 207 kts 177°
2026-04-17 05:37 49.93912 8.53054 2939 ft 219 kts 176°
2026-04-17 05:37 49.92357 8.53174 3332 ft 227 kts 177°
2026-04-17 05:37 49.90776 8.53280 3847 ft 228 kts 178°
2026-04-17 05:37 49.89181 8.53383 4357 ft 230 kts 178°
2026-04-17 05:38 49.87597 8.53388 4847 ft 232 kts 186°
2026-04-17 05:38 49.86025 8.52841 5348 ft 233 kts 200°
2026-04-17 05:38 49.84559 8.51686 5581 ft 245 kts 220°
2026-04-17 05:38 49.83414 8.49640 5728 ft 260 kts 235°
2026-04-17 05:39 49.82423 8.47233 6087 ft 268 kts 239°
2026-04-17 05:39 49.81465 8.44753 6627 ft 269 kts 239°
2026-04-17 05:39 49.80510 8.42253 7107 ft 271 kts 239°
2026-04-17 05:39 49.79548 8.39737 7574 ft 273 kts 239°
2026-04-17 05:40 49.78617 8.37210 8074 ft 275 kts 244°
2026-04-17 05:40 49.77986 8.34410 8562 ft 277 kts 259°
2026-04-17 05:40 49.77845 8.31441 9070 ft 279 kts 272°
2026-04-17 05:40 49.78063 8.28451 9581 ft 281 kts 280°
2026-04-17 05:41 49.78470 8.25490 10098 ft 283 kts 284°
2026-04-17 05:41 49.78953 8.22519 10435 ft 290 kts 284°
2026-04-17 05:41 49.79472 8.19425 10573 ft 305 kts 285°
2026-04-17 05:41 49.80014 8.16163 10723 ft 319 kts 284°
2026-04-17 05:42 49.80561 8.12815 10912 ft 330 kts 284°
2026-04-17 05:42 49.81116 8.09350 11366 ft 332 kts 284°
2026-04-17 05:42 49.81668 8.05871 11825 ft 334 kts 284°
2026-04-17 05:42 49.82220 8.02375 12313 ft 335 kts 284°
2026-04-17 05:43 49.82773 7.98858 12784 ft 337 kts 284°
2026-04-17 05:43 49.83328 7.95321 13256 ft 339 kts 284°
2026-04-17 05:43 49.83884 7.91763 13722 ft 341 kts 284°
2026-04-17 05:43 49.84444 7.88185 14167 ft 343 kts 284°
2026-04-17 05:44 49.85005 7.84585 14577 ft 345 kts 284°
2026-04-17 05:44 49.85569 7.80966 14983 ft 346 kts 284°
2026-04-17 05:44 49.86128 7.77375 15385 ft 348 kts 284°
2026-04-17 05:44 49.86701 7.73716 15805 ft 350 kts 284°
2026-04-17 05:45 49.87282 7.70037 16126 ft 354 kts 284°
2026-04-17 05:45 49.87862 7.66317 16544 ft 355 kts 284°
2026-04-17 05:45 49.88439 7.62587 16942 ft 357 kts 284°
2026-04-17 05:45 49.89018 7.58832 17334 ft 359 kts 284°
2026-04-17 05:46 49.89599 7.55055 17731 ft 361 kts 284°
2026-04-17 05:46 49.90181 7.51259 18132 ft 363 kts 284°
2026-04-17 05:46 49.90767 7.47437 18522 ft 365 kts 284°
2026-04-17 05:46 49.91345 7.43651 18865 ft 366 kts 284°
2026-04-17 05:47 49.91933 7.39796 19236 ft 368 kts 284°
2026-04-17 05:47 49.92521 7.35929 19622 ft 369 kts 284°
2026-04-17 05:47 49.93112 7.32039 19985 ft 371 kts 284°
2026-04-17 05:47 49.93701 7.28146 20340 ft 372 kts 283°
2026-04-17 05:48 49.94294 7.24222 20666 ft 375 kts 283°
2026-04-17 05:48 49.94888 7.20273 21059 ft 376 kts 283°
2026-04-17 05:48 49.95483 7.16317 21415 ft 377 kts 283°
2026-04-17 05:48 49.96071 7.12395 21769 ft 379 kts 283°
2026-04-17 05:49 49.96669 7.08397 22142 ft 381 kts 283°
2026-04-17 05:49 49.97269 7.04381 22499 ft 382 kts 283°
2026-04-17 05:49 49.97869 7.00347 22863 ft 384 kts 283°
2026-04-17 05:49 49.98470 6.96297 23205 ft 386 kts 283°
2026-04-17 05:50 49.99001 6.92211 23607 ft 387 kts 278°
2026-04-17 05:50 49.99232 6.88039 23945 ft 389 kts 272°
2026-04-17 05:50 49.99155 6.83829 24237 ft 391 kts 267°
2026-04-17 05:50 49.99010 6.79654 24488 ft 394 kts 268°
2026-04-17 05:51 49.98879 6.75399 24829 ft 394 kts 268°
2026-04-17 05:51 49.98753 6.71139 25143 ft 396 kts 268°
2026-04-17 05:51 49.98625 6.66856 25448 ft 397 kts 268°
2026-04-17 05:51 49.98495 6.62565 25748 ft 399 kts 268°
2026-04-17 05:52 49.98201 6.58279 26045 ft 401 kts 261°
2026-04-17 05:52 49.97559 6.54039 26340 ft 404 kts 255°
2026-04-17 05:52 49.96585 6.49925 26623 ft 408 kts 248°
2026-04-17 05:52 49.95440 6.45954 26904 ft 409 kts 248°
2026-04-17 05:53 49.94293 6.41899 27193 ft 411 kts 249°
2026-04-17 05:53 49.93149 6.37826 27476 ft 413 kts 249°
2026-04-17 05:53 49.92764 6.36450 27578 ft 413 kts 248°
2026-04-17 05:53 49.91586 6.32251 27907 ft 414 kts 249°
2026-04-17 05:54 49.90434 6.28152 28170 ft 416 kts 249°
2026-04-17 05:54 49.89252 6.24054 28433 ft 418 kts 247°
2026-04-17 05:54 49.88043 6.19944 28691 ft 419 kts 248°
2026-04-17 05:54 49.86889 6.15852 28943 ft 421 kts 248°
2026-04-17 05:55 49.85528 6.11814 29183 ft 425 kts 241°
2026-04-17 05:55 49.83872 6.08011 29435 ft 428 kts 237°
2026-04-17 05:55 49.82129 6.04257 29682 ft 429 kts 237°
2026-04-17 05:55 49.80394 6.00498 29895 ft 431 kts 237°
2026-04-17 05:56 49.78649 5.96710 30168 ft 432 kts 237°
2026-04-17 05:56 49.76902 5.92916 30417 ft 434 kts 237°
2026-04-17 05:56 49.75200 5.89062 30622 ft 433 kts 242°
2026-04-17 05:56 49.73778 5.84973 30891 ft 431 kts 248°
2026-04-17 05:57 49.72675 5.80751 31169 ft 429 kts 253°
2026-04-17 05:57 49.71691 5.76388 31365 ft 431 kts 252°
2026-04-17 05:57 49.70688 5.72010 31605 ft 432 kts 252°
2026-04-17 05:57 49.69674 5.67633 31835 ft 433 kts 252°
2026-04-17 05:58 49.68651 5.63243 32051 ft 435 kts 252°
2026-04-17 05:58 49.67623 5.58848 32283 ft 436 kts 252°
2026-04-17 05:58 49.66590 5.54438 32435 ft 439 kts 252°
2026-04-17 05:59 49.64492 5.45512 32526 ft 446 kts 252°
2026-04-17 05:59 49.62386 5.36589 33012 ft 441 kts 252°
2026-04-17 05:59 49.61385 5.32142 33193 ft 439 kts 253°
2026-04-17 06:00 49.60439 5.27652 33228 ft 442 kts 253°
2026-04-17 06:00 49.58562 5.18613 33231 ft 443 kts 255°
2026-04-17 06:01 49.56971 5.09455 33231 ft 443 kts 257°
2026-04-17 06:01 49.55412 5.00341 33229 ft 443 kts 256°
2026-04-17 06:02 49.53793 4.91199 33232 ft 443 kts 256°
2026-04-17 06:02 49.52151 4.82056 33236 ft 444 kts 256°
2026-04-17 06:03 49.50499 4.72912 33237 ft 444 kts 256°
2026-04-17 06:03 49.48850 4.63820 33242 ft 444 kts 256°
2026-04-17 06:04 49.47183 4.54676 33239 ft 444 kts 256°
2026-04-17 06:04 49.45510 4.45540 33246 ft 444 kts 255°
2026-04-17 06:05 49.43827 4.36395 33226 ft 445 kts 255°
2026-04-17 06:05 49.42137 4.27262 33234 ft 445 kts 255°
2026-04-17 06:06 49.40449 4.18182 33237 ft 445 kts 255°
2026-04-17 06:06 49.38743 4.09055 33236 ft 445 kts 255°
2026-04-17 06:07 49.37028 3.99923 33233 ft 445 kts 255°
2026-04-17 06:07 49.35471 3.90754 33230 ft 444 kts 259°
2026-04-17 06:08 49.34241 3.81534 33233 ft 444 kts 259°
2026-04-17 06:08 49.32955 3.72265 33230 ft 444 kts 258°
2026-04-17 06:09 49.31623 3.63013 33232 ft 444 kts 258°
2026-04-17 06:09 49.30276 3.53767 33224 ft 445 kts 258°
2026-04-17 06:10 49.28929 3.44575 33223 ft 445 kts 258°
2026-04-17 06:10 49.27566 3.35320 33220 ft 446 kts 258°
2026-04-17 06:11 49.26194 3.26069 33225 ft 446 kts 258°
2026-04-17 06:11 49.24816 3.16819 33225 ft 446 kts 258°
2026-04-17 06:12 49.23428 3.07569 33212 ft 446 kts 258°
2026-04-17 06:12 49.22042 2.98377 33215 ft 447 kts 258°
2026-04-17 06:13 49.20638 2.89118 33218 ft 447 kts 258°
2026-04-17 06:13 49.19225 2.79862 33226 ft 447 kts 258°
2026-04-17 06:14 49.17803 2.70600 33233 ft 447 kts 258°
2026-04-17 06:14 49.16385 2.61412 33227 ft 448 kts 258°
2026-04-17 06:15 49.14946 2.52143 33234 ft 448 kts 258°
2026-04-17 06:15 49.13500 2.42879 33237 ft 449 kts 258°
2026-04-17 06:16 49.12382 2.33530 33232 ft 447 kts 263°
2026-04-17 06:16 49.11540 2.24182 33237 ft 448 kts 263°
2026-04-17 06:17 49.10667 2.14771 33238 ft 448 kts 263°
2026-04-17 06:17 49.09780 2.05358 33239 ft 448 kts 263°
2026-04-17 06:18 49.08976 1.95927 33239 ft 448 kts 264°
2026-04-17 06:18 49.08296 1.86542 33214 ft 448 kts 264°
2026-04-17 06:19 49.07582 1.77094 33214 ft 448 kts 264°
2026-04-17 06:19 49.06848 1.67658 33267 ft 449 kts 264°
2026-04-17 06:19 49.06474 1.62936 33396 ft 448 kts 264°
2026-04-17 06:20 49.06100 1.58225 33591 ft 447 kts 264°
2026-04-17 06:20 49.05777 1.54174 33717 ft 447 kts 264°
2026-04-17 06:20 49.05400 1.49455 33878 ft 446 kts 264°
2026-04-17 06:21 49.05023 1.44769 34037 ft 445 kts 264°
2026-04-17 06:21 49.04646 1.40094 34197 ft 444 kts 264°
2026-04-17 06:21 49.04267 1.35424 34233 ft 443 kts 264°
2026-04-17 06:22 49.03507 1.26115 34240 ft 442 kts 263°
2026-04-17 06:22 49.03313 1.16781 34245 ft 442 kts 273°
2026-04-17 06:23 49.03630 1.07488 34234 ft 442 kts 273°
2026-04-17 06:23 49.03914 0.98139 34238 ft 442 kts 272°
2026-04-17 06:24 49.04187 0.88789 34222 ft 442 kts 272°
2026-04-17 06:24 49.04454 0.79434 34221 ft 442 kts 272°
2026-04-17 06:25 49.04712 0.70137 34219 ft 442 kts 272°
2026-04-17 06:25 49.04964 0.60779 34216 ft 442 kts 272°
2026-04-17 06:26 49.05208 0.51424 34219 ft 442 kts 272°
2026-04-17 06:26 49.05445 0.42077 34227 ft 441 kts 272°
2026-04-17 06:27 49.05675 0.32721 34223 ft 441 kts 272°
2026-04-17 06:27 49.05894 0.23455 34223 ft 440 kts 271°
2026-04-17 06:28 49.06107 0.14139 34215 ft 440 kts 271°
2026-04-17 06:28 49.06313 0.04824 34218 ft 440 kts 271°
2026-04-17 06:29 49.06512 -0.04484 34213 ft 438 kts 271°
2026-04-17 06:29 49.06700 -0.13631 34211 ft 436 kts 271°
2026-04-17 06:30 49.06882 -0.22918 34212 ft 436 kts 271°
2026-04-17 06:30 49.07058 -0.32172 34212 ft 437 kts 271°
2026-04-17 06:31 49.07227 -0.41431 34213 ft 437 kts 271°
2026-04-17 06:31 49.07388 -0.50694 34212 ft 437 kts 271°
2026-04-17 06:32 49.07531 -0.59268 34213 ft 437 kts 271°
2026-04-17 06:32 49.07679 -0.68529 34210 ft 437 kts 271°
2026-04-17 06:33 49.07819 -0.77791 34218 ft 437 kts 271°
2026-04-17 06:33 49.07951 -0.87047 34219 ft 436 kts 271°
2026-04-17 06:34 49.08076 -0.96192 34219 ft 431 kts 270°
2026-04-17 06:34 49.08192 -1.05341 34214 ft 432 kts 270°
2026-04-17 06:35 49.08311 -1.14492 34212 ft 432 kts 272°
2026-04-17 06:35 49.09243 -1.23555 34210 ft 434 kts 283°
2026-04-17 06:36 49.10715 -1.32429 34222 ft 434 kts 282°
2026-04-17 06:36 49.12158 -1.41383 34212 ft 434 kts 281°
2026-04-17 06:37 49.13591 -1.50344 34206 ft 434 kts 281°
2026-04-17 06:37 49.15018 -1.59305 34206 ft 434 kts 281°
2026-04-17 06:38 49.16427 -1.68198 34202 ft 434 kts 281°
2026-04-17 06:38 49.17841 -1.77162 34202 ft 434 kts 281°
2026-04-17 06:39 49.19249 -1.86140 34198 ft 434 kts 281°
2026-04-17 06:39 49.20649 -1.95121 34188 ft 434 kts 281°
2026-04-17 06:40 49.22033 -2.04048 34199 ft 434 kts 281°
2026-04-17 06:40 49.23518 -2.13005 34201 ft 435 kts 282°
2026-04-17 06:41 49.25086 -2.21947 34206 ft 435 kts 282°
2026-04-17 06:41 49.26630 -2.30903 34198 ft 435 kts 282°
2026-04-17 06:42 49.28154 -2.39881 34209 ft 435 kts 281°
2026-04-17 06:42 49.29661 -2.48802 34191 ft 435 kts 281°
2026-04-17 06:43 49.31169 -2.57784 34188 ft 435 kts 281°
2026-04-17 06:43 49.32671 -2.66772 34187 ft 435 kts 281°
2026-04-17 06:44 49.34155 -2.75689 34191 ft 435 kts 281°
2026-04-17 06:44 49.35641 -2.84683 34189 ft 435 kts 281°
2026-04-17 06:45 49.37121 -2.93677 34185 ft 434 kts 281°
2026-04-17 06:45 49.38591 -3.02665 34184 ft 434 kts 281°
2026-04-17 06:46 49.40055 -3.11660 34177 ft 434 kts 281°
2026-04-17 06:46 49.41510 -3.20641 34183 ft 434 kts 280°
2026-04-17 06:47 49.42949 -3.29577 34175 ft 433 kts 280°
2026-04-17 06:47 49.44388 -3.38564 34174 ft 433 kts 280°
2026-04-17 06:48 49.45820 -3.47555 34169 ft 433 kts 280°
2026-04-17 06:48 49.47243 -3.56540 34185 ft 433 kts 280°
2026-04-17 06:49 49.48644 -3.65405 34159 ft 426 kts 279°
2026-04-17 06:49 49.50033 -3.74285 34166 ft 428 kts 279°
2026-04-17 06:50 49.51419 -3.83190 34157 ft 428 kts 279°
2026-04-17 06:50 49.52796 -3.92076 34157 ft 427 kts 279°
2026-04-17 06:51 49.54161 -4.00930 34151 ft 427 kts 279°
2026-04-17 06:51 49.55526 -4.09820 34151 ft 424 kts 278°
2026-04-17 06:52 49.56872 -4.18656 34139 ft 425 kts 278°
2026-04-17 06:52 49.58216 -4.27524 34141 ft 425 kts 278°
2026-04-17 06:53 49.59461 -4.36402 34136 ft 423 kts 276°
2026-04-17 06:53 49.60579 -4.45247 34134 ft 423 kts 277°
2026-04-17 06:54 49.61729 -4.54147 34137 ft 423 kts 276°
2026-04-17 06:54 49.62860 -4.63049 34136 ft 423 kts 276°
2026-04-17 06:55 49.63976 -4.71949 34133 ft 422 kts 276°
2026-04-17 06:55 49.65076 -4.80791 34136 ft 422 kts 275°
2026-04-17 06:56 49.65992 -4.88200 34124 ft 418 kts 275°
2026-04-17 06:56 49.67076 -4.97023 34122 ft 420 kts 275°
2026-04-17 06:57 49.67925 -5.03968 34122 ft 419 kts 275°
2026-04-17 06:57 49.68994 -5.12764 34110 ft 419 kts 275°
2026-04-17 06:58 49.70063 -5.21622 34109 ft 419 kts 275°
2026-04-17 06:58 49.71124 -5.30475 34101 ft 419 kts 275°
2026-04-17 06:59 49.72179 -5.39336 34103 ft 419 kts 275°
2026-04-17 06:59 49.73228 -5.48198 34104 ft 420 kts 274°
2026-04-17 07:00 49.74262 -5.57010 34107 ft 419 kts 274°
2026-04-17 07:00 49.75297 -5.65886 34092 ft 419 kts 274°
2026-04-17 07:01 49.76322 -5.74747 34084 ft 419 kts 274°
2026-04-17 07:01 49.77334 -5.83546 34079 ft 419 kts 274°
2026-04-17 07:02 49.78351 -5.92433 34081 ft 419 kts 273°
2026-04-17 07:02 49.79356 -6.01297 34068 ft 418 kts 273°
2026-04-17 07:03 49.80350 -6.10143 34057 ft 417 kts 273°
2026-04-17 07:03 49.81339 -6.18993 34064 ft 417 kts 273°
2026-04-17 07:04 49.82313 -6.27771 34057 ft 416 kts 273°
2026-04-17 07:04 49.83285 -6.36595 34070 ft 416 kts 272°
2026-04-17 07:05 49.84250 -6.45415 34047 ft 415 kts 272°
2026-04-17 07:05 49.85045 -6.52736 34054 ft 414 kts 272°
2026-04-17 07:06 49.86147 -6.62961 34049 ft 414 kts 272°
2026-04-17 07:06 49.87087 -6.71759 34043 ft 414 kts 272°
2026-04-17 07:07 49.88021 -6.80557 34037 ft 414 kts 272°
2026-04-17 07:07 49.88794 -6.87874 34045 ft 414 kts 271°
2026-04-17 07:08 49.89865 -6.98113 34043 ft 414 kts 271°
2026-04-17 07:08 49.90630 -7.05487 34042 ft 413 kts 271°
2026-04-17 07:09 49.91532 -7.14243 34039 ft 414 kts 271°
2026-04-17 07:09 49.92434 -7.23056 34038 ft 413 kts 271°
2026-04-17 07:10 49.93329 -7.31867 34039 ft 414 kts 270°
2026-04-17 07:10 49.94217 -7.40678 34039 ft 413 kts 270°
2026-04-17 07:11 49.95090 -7.49417 34036 ft 412 kts 270°
2026-04-17 07:11 49.95962 -7.58211 34040 ft 412 kts 270°
2026-04-17 07:12 49.96826 -7.66994 34035 ft 411 kts 270°
2026-04-17 07:12 49.97681 -7.75767 34072 ft 410 kts 270°
2026-04-17 07:13 49.98532 -7.84546 34036 ft 410 kts 269°
2026-04-17 07:13 49.99369 -7.93247 34025 ft 410 kts 269°
2026-04-17 07:14 50.00077 -8.01992 34028 ft 404 kts 265°
2026-04-17 07:14 50.00295 -8.10678 34011 ft 403 kts 264°
2026-04-17 07:15 50.00550 -8.19371 34012 ft 403 kts 264°
2026-04-17 07:15 50.00807 -8.28020 34037 ft 403 kts 264°
2026-04-17 07:16 50.01052 -8.36725 34028 ft 403 kts 264°
2026-04-17 07:16 50.01287 -8.45426 34018 ft 403 kts 264°
2026-04-17 07:17 50.01511 -8.54116 34017 ft 402 kts 263°
2026-04-17 07:17 50.01807 -8.65985 34017 ft 402 kts 263°
2026-04-17 07:18 50.02017 -8.74679 34014 ft 403 kts 263°
2026-04-17 07:18 50.02219 -8.83380 34004 ft 403 kts 263°
2026-04-17 07:19 50.02415 -8.92085 34018 ft 402 kts 263°
2026-04-17 07:19 50.02603 -9.00712 34015 ft 402 kts 263°
2026-04-17 07:20 50.02786 -9.09412 34022 ft 402 kts 263°
2026-04-17 07:20 50.02963 -9.18105 34024 ft 403 kts 263°
2026-04-17 07:21 50.03133 -9.26808 34011 ft 402 kts 263°
2026-04-17 07:21 50.03296 -9.35502 34012 ft 402 kts 263°
2026-04-17 07:22 50.03452 -9.44137 34011 ft 402 kts 263°
2026-04-17 07:22 50.03601 -9.52844 33987 ft 404 kts 262°
2026-04-17 07:23 50.03746 -9.61576 33996 ft 404 kts 262°
2026-04-17 07:23 50.03885 -9.70307 34001 ft 404 kts 262°
2026-04-17 07:24 50.04015 -9.78988 33998 ft 404 kts 262°
2026-04-17 07:24 50.04140 -9.87718 33999 ft 404 kts 262°
2026-04-17 07:25 50.04259 -9.96460 34000 ft 404 kts 262°
2026-04-17 07:25 50.04370 -10.05195 33999 ft 404 kts 262°
2026-04-17 07:26 50.04473 -10.13894 33998 ft 406 kts 262°
2026-04-17 07:26 50.04572 -10.22666 33992 ft 406 kts 262°
2026-04-17 07:27 50.04665 -10.31457 33991 ft 406 kts 262°
2026-04-17 07:27 50.04751 -10.40216 33987 ft 406 kts 262°
2026-04-17 07:28 50.04831 -10.48977 33981 ft 406 kts 262°
2026-04-17 07:28 50.04902 -10.57766 33964 ft 409 kts 263°
2026-04-17 07:29 50.04967 -10.66622 33974 ft 409 kts 263°
2026-04-17 07:29 50.05028 -10.75481 33979 ft 410 kts 263°
2026-04-17 07:30 50.05082 -10.84295 33981 ft 410 kts 262°
2026-04-17 07:30 50.05129 -10.93179 33986 ft 411 kts 262°
2026-04-17 07:31 50.05169 -11.02061 34019 ft 411 kts 263°
2026-04-17 07:31 50.05200 -11.10987 33970 ft 413 kts 263°
2026-04-17 07:32 50.05227 -11.19941 33971 ft 414 kts 263°
2026-04-17 07:32 50.05247 -11.28841 33981 ft 414 kts 263°
2026-04-17 07:33 50.05260 -11.37806 33975 ft 414 kts 263°
2026-04-17 07:33 50.05266 -11.46775 33973 ft 415 kts 263°
2026-04-17 07:34 50.05261 -11.55775 33954 ft 417 kts 263°
2026-04-17 07:34 50.05255 -11.64739 33969 ft 417 kts 263°
2026-04-17 07:35 50.05241 -11.73766 33982 ft 418 kts 263°
2026-04-17 07:35 50.05218 -11.82847 33949 ft 421 kts 263°
2026-04-17 07:36 50.05189 -11.91958 33973 ft 421 kts 263°
2026-04-17 07:36 50.05152 -12.01032 33958 ft 423 kts 264°
2026-04-17 07:37 50.05108 -12.10196 33963 ft 424 kts 263°
2026-04-17 07:37 50.05057 -12.19371 33967 ft 424 kts 263°
2026-04-17 07:38 50.04998 -12.28557 33961 ft 425 kts 263°
2026-04-17 07:38 50.04933 -12.37744 33960 ft 425 kts 263°
2026-04-17 07:39 50.04859 -12.46883 33968 ft 426 kts 264°
2026-04-17 07:39 50.04780 -12.56095 33957 ft 426 kts 264°
2026-04-17 07:40 50.04692 -12.65312 33958 ft 426 kts 264°
2026-04-17 07:40 50.04598 -12.74517 33957 ft 426 kts 263°
2026-04-17 07:41 50.04496 -12.83665 33953 ft 426 kts 263°
2026-04-17 07:41 50.04385 -12.92881 33957 ft 426 kts 264°
2026-04-17 07:42 50.04269 -13.02101 33951 ft 426 kts 264°
2026-04-17 07:42 50.04145 -13.11321 33952 ft 426 kts 264°
2026-04-17 07:43 50.04015 -13.20474 33947 ft 426 kts 264°
2026-04-17 07:43 50.03876 -13.29683 33947 ft 426 kts 264°
2026-04-17 07:44 50.03728 -13.38898 33951 ft 426 kts 264°
2026-04-17 07:44 50.03576 -13.48122 33952 ft 426 kts 264°
2026-04-17 07:45 50.03417 -13.57278 33949 ft 426 kts 264°
2026-04-17 07:45 50.03249 -13.66496 33942 ft 426 kts 264°
2026-04-17 07:46 50.03074 -13.75714 33929 ft 426 kts 264°
2026-04-17 07:46 50.02890 -13.84928 33935 ft 427 kts 264°
2026-04-17 07:47 50.02702 -13.94090 33943 ft 427 kts 264°
2026-04-17 07:47 50.02506 -14.03307 33968 ft 426 kts 264°
2026-04-17 07:48 50.02300 -14.12547 33930 ft 428 kts 264°
2026-04-17 07:48 50.02088 -14.21797 33932 ft 428 kts 264°
2026-04-17 07:49 50.01870 -14.30986 33937 ft 428 kts 264°
2026-04-17 07:49 50.01643 -14.40233 33937 ft 428 kts 264°
2026-04-17 07:50 50.01408 -14.49506 33938 ft 429 kts 264°
2026-04-17 07:50 50.01166 -14.58757 33938 ft 429 kts 264°
2026-04-17 07:51 50.00916 -14.68014 33941 ft 429 kts 264°
2026-04-17 07:51 50.00663 -14.77207 33943 ft 429 kts 264°
2026-04-17 07:52 50.00406 -14.86473 33959 ft 430 kts 264°
2026-04-17 07:52 50.00274 -14.91110 34078 ft 429 kts 264°
2026-04-17 07:52 50.00143 -14.95723 34354 ft 425 kts 264°
2026-04-17 07:53 50.00012 -15.00274 34769 ft 419 kts 264°
2026-04-17 07:53 49.99966 -15.04809 34909 ft 422 kts 267°
2026-04-17 07:53 50.00209 -15.14015 34940 ft 430 kts 269°
2026-04-17 07:54 50.00457 -15.23288 34943 ft 434 kts 269°
2026-04-17 07:54 50.00654 -15.32670 34943 ft 434 kts 268°
2026-04-17 07:55 50.00828 -15.42026 34936 ft 433 kts 268°
2026-04-17 07:55 50.00911 -15.46686 34732 ft 430 kts 268°
2026-04-17 07:55 50.00991 -15.51322 34305 ft 428 kts 268°
2026-04-17 07:56 50.01068 -15.55872 34045 ft 425 kts 268°
2026-04-17 07:56 50.01143 -15.60485 33954 ft 428 kts 268°
2026-04-17 07:56 50.01289 -15.69800 33948 ft 432 kts 268°
2026-04-17 07:57 50.01430 -15.79149 33957 ft 432 kts 268°
2026-04-17 07:57 50.01565 -15.88490 33947 ft 432 kts 268°
2026-04-17 07:58 50.01691 -15.97838 33943 ft 432 kts 268°
2026-04-17 07:58 50.01809 -16.07111 33941 ft 433 kts 268°
2026-04-17 07:59 50.01920 -16.16468 33968 ft 433 kts 268°
2026-04-17 07:59 50.02023 -16.25821 33969 ft 432 kts 268°
2026-04-17 08:00 50.02120 -16.35147 33963 ft 431 kts 268°
2026-04-17 08:00 50.02207 -16.44408 33969 ft 431 kts 268°
2026-04-17 08:01 50.02288 -16.53721 33959 ft 431 kts 268°
2026-04-17 08:01 50.02362 -16.63038 33956 ft 431 kts 268°
2026-04-17 08:02 50.02428 -16.72343 33960 ft 430 kts 268°
2026-04-17 08:02 50.02486 -16.81573 33960 ft 430 kts 268°
2026-04-17 08:03 50.02537 -16.90855 33963 ft 429 kts 268°
2026-04-17 08:03 50.02580 -17.00146 33963 ft 429 kts 268°
2026-04-17 08:04 50.02616 -17.09428 33966 ft 429 kts 268°
2026-04-17 08:04 50.02645 -17.18645 33974 ft 429 kts 268°
2026-04-17 08:05 50.02666 -17.27917 33977 ft 429 kts 268°
2026-04-17 08:05 50.02680 -17.37187 33982 ft 429 kts 268°
2026-04-17 08:06 50.02686 -17.46473 33972 ft 430 kts 268°
2026-04-17 08:06 50.02686 -17.55768 33974 ft 430 kts 268°
2026-04-17 08:07 50.02678 -17.64997 33982 ft 430 kts 268°
2026-04-17 08:07 50.02662 -17.74303 33978 ft 430 kts 268°
2026-04-17 08:08 50.02639 -17.83600 33986 ft 430 kts 268°
2026-04-17 08:08 50.02608 -17.92894 33993 ft 430 kts 268°
2026-04-17 08:09 50.02570 -18.02195 33995 ft 430 kts 267°
2026-04-17 08:09 50.02525 -18.11436 33997 ft 430 kts 268°
2026-04-17 08:10 50.02472 -18.20728 34000 ft 430 kts 267°
2026-04-17 08:10 50.02413 -18.29987 34001 ft 430 kts 267°
2026-04-17 08:11 50.02345 -18.39275 34004 ft 430 kts 267°
2026-04-17 08:11 50.02271 -18.48506 34003 ft 430 kts 267°
2026-04-17 08:12 50.02188 -18.57798 34011 ft 430 kts 267°
2026-04-17 08:12 50.02098 -18.67082 34010 ft 429 kts 267°
2026-04-17 08:13 50.02002 -18.76300 34006 ft 429 kts 267°
2026-04-17 08:14 50.01843 -18.90210 34021 ft 429 kts 267°
2026-04-17 08:14 50.01727 -18.99498 34013 ft 430 kts 267°
2026-04-17 08:15 50.01604 -19.08794 34010 ft 430 kts 267°
2026-04-17 08:15 50.01473 -19.18092 34014 ft 430 kts 267°
2026-04-17 08:16 50.01336 -19.27323 34009 ft 430 kts 267°
2026-04-17 08:16 50.01191 -19.36625 34020 ft 430 kts 267°
2026-04-17 08:17 50.01038 -19.45916 34022 ft 430 kts 267°
2026-04-17 08:17 50.00877 -19.55214 34028 ft 430 kts 267°
2026-04-17 08:18 50.00710 -19.64497 34032 ft 430 kts 267°
2026-04-17 08:18 50.00536 -19.73716 34032 ft 429 kts 267°
2026-04-17 08:19 50.00355 -19.82989 34026 ft 429 kts 267°
2026-04-17 08:19 50.00170 -19.92253 34032 ft 429 kts 266°
2026-04-17 08:20 49.99369 -20.01409 34037 ft 427 kts 257°
2026-04-17 08:20 49.97553 -20.10111 34038 ft 427 kts 249°
2026-04-17 08:21 49.95423 -20.18738 34036 ft 427 kts 250°
2026-04-17 08:21 49.93329 -20.27365 34042 ft 427 kts 250°
2026-04-17 08:22 49.91243 -20.35940 34042 ft 427 kts 250°
2026-04-17 08:22 49.89134 -20.44562 34049 ft 427 kts 250°
2026-04-17 08:23 49.87022 -20.53168 34058 ft 427 kts 250°
2026-04-17 08:23 49.84899 -20.61774 34059 ft 428 kts 250°
2026-04-17 08:24 49.82765 -20.70374 34057 ft 428 kts 250°
2026-04-17 08:24 49.80624 -20.78961 34068 ft 428 kts 250°
2026-04-17 08:25 49.78491 -20.87484 34068 ft 428 kts 250°
2026-04-17 08:25 49.76338 -20.96059 34071 ft 428 kts 250°
2026-04-17 08:26 49.74175 -21.04638 34079 ft 428 kts 250°
2026-04-17 08:26 49.72008 -21.13199 34079 ft 428 kts 250°
2026-04-17 08:27 49.69847 -21.21704 34077 ft 428 kts 250°
2026-04-17 08:27 49.67664 -21.30263 34074 ft 429 kts 250°
2026-04-17 08:28 49.65472 -21.38826 34087 ft 429 kts 250°
2026-04-17 08:28 49.63276 -21.47375 34094 ft 429 kts 250°
2026-04-17 08:29 49.61072 -21.55919 34091 ft 429 kts 250°
2026-04-17 08:29 49.58859 -21.64462 34080 ft 429 kts 250°
2026-04-17 08:30 49.56654 -21.72949 34092 ft 430 kts 250°
2026-04-17 08:30 49.54428 -21.81483 34097 ft 430 kts 250°
2026-04-17 08:31 49.52192 -21.90026 34104 ft 430 kts 250°
2026-04-17 08:31 49.49946 -21.98571 34103 ft 431 kts 250°
2026-04-17 08:32 49.47693 -22.07112 34102 ft 432 kts 250°
2026-04-17 08:32 49.45446 -22.15601 34105 ft 432 kts 250°
2026-04-17 08:33 49.43172 -22.24159 34112 ft 433 kts 250°
2026-04-17 08:33 49.40890 -22.32715 34119 ft 433 kts 250°
2026-04-17 08:34 49.38603 -22.41257 34104 ft 433 kts 250°
2026-04-17 08:34 49.36320 -22.49750 34113 ft 434 kts 250°
2026-04-17 08:35 49.34013 -22.58308 34136 ft 434 kts 250°
2026-04-17 08:35 49.31698 -22.66865 34145 ft 435 kts 250°
2026-04-17 08:36 49.29381 -22.75394 34126 ft 435 kts 250°
2026-04-17 08:36 49.27061 -22.83897 34119 ft 435 kts 250°
2026-04-17 08:37 49.24723 -22.92444 34127 ft 436 kts 250°
2026-04-17 08:37 49.22374 -23.00999 34130 ft 436 kts 250°
2026-04-17 08:38 49.20019 -23.09541 34132 ft 436 kts 250°
2026-04-17 08:38 49.17655 -23.18089 34139 ft 437 kts 250°
2026-04-17 08:39 49.15283 -23.26632 34139 ft 437 kts 250°
2026-04-17 08:39 49.12922 -23.35106 34139 ft 437 kts 250°
2026-04-17 08:40 49.10539 -23.43626 34145 ft 437 kts 249°
2026-04-17 08:40 49.08149 -23.52142 34143 ft 436 kts 249°
2026-04-17 08:41 49.05751 -23.60652 34135 ft 437 kts 250°
2026-04-17 08:41 49.03362 -23.69106 34141 ft 437 kts 250°
2026-04-17 08:42 49.00948 -23.77616 34149 ft 438 kts 250°
2026-04-17 08:42 48.98525 -23.86129 34152 ft 438 kts 250°
2026-04-17 08:43 48.96093 -23.94641 34153 ft 439 kts 250°
2026-04-17 08:43 48.93653 -24.03149 34148 ft 439 kts 250°
2026-04-17 08:44 48.91204 -24.11665 34153 ft 440 kts 250°
2026-04-17 08:44 48.88761 -24.20127 34164 ft 440 kts 250°
2026-04-17 08:45 48.86293 -24.28645 34169 ft 441 kts 250°
2026-04-17 08:45 48.83815 -24.37162 34154 ft 441 kts 250°
2026-04-17 08:46 48.81328 -24.45687 34161 ft 442 kts 250°
2026-04-17 08:46 48.78850 -24.54151 34163 ft 443 kts 250°
2026-04-17 08:47 48.76343 -24.62682 34181 ft 443 kts 250°
2026-04-17 08:47 48.73830 -24.71203 34167 ft 443 kts 250°
2026-04-17 08:48 48.71309 -24.79721 34169 ft 444 kts 250°
2026-04-17 08:48 48.68777 -24.88249 34177 ft 444 kts 250°
2026-04-17 08:49 48.66257 -24.96707 34185 ft 444 kts 250°
2026-04-17 08:49 48.63711 -25.05220 34186 ft 444 kts 250°
2026-04-17 08:50 48.61159 -25.13724 34178 ft 444 kts 250°
2026-04-17 08:50 48.58600 -25.22227 34183 ft 445 kts 250°
2026-04-17 08:51 48.56034 -25.30720 34186 ft 445 kts 250°
2026-04-17 08:51 48.53478 -25.39150 34192 ft 445 kts 250°
2026-04-17 08:52 48.50898 -25.47631 34185 ft 445 kts 249°
2026-04-17 08:52 48.48311 -25.56104 34196 ft 445 kts 249°
2026-04-17 08:53 48.45717 -25.64570 34192 ft 445 kts 249°
2026-04-17 08:53 48.43136 -25.72969 34193 ft 445 kts 249°
2026-04-17 08:54 48.40529 -25.81420 34196 ft 445 kts 249°
2026-04-17 08:54 48.37915 -25.89867 34193 ft 445 kts 249°
2026-04-17 08:55 48.35294 -25.98310 34197 ft 446 kts 249°
2026-04-17 08:55 48.32664 -26.06750 34200 ft 446 kts 249°
2026-04-17 08:56 48.30049 -26.15118 34206 ft 446 kts 249°
2026-04-17 08:56 48.27403 -26.23554 34193 ft 446 kts 249°
2026-04-17 08:57 48.24751 -26.31981 34202 ft 447 kts 249°
2026-04-17 08:57 48.22087 -26.40418 34204 ft 448 kts 249°
2026-04-17 08:58 48.19415 -26.48851 34209 ft 448 kts 249°
2026-04-17 08:58 48.16753 -26.57225 34195 ft 448 kts 249°
2026-04-17 08:59 48.14065 -26.65654 34210 ft 449 kts 249°
2026-04-17 08:59 48.11365 -26.74089 34215 ft 449 kts 249°
2026-04-17 09:00 48.08678 -26.82457 34218 ft 450 kts 249°
2026-04-17 09:00 48.05964 -26.90882 34223 ft 450 kts 248°
2026-04-17 09:01 48.03244 -26.99298 34222 ft 450 kts 248°
2026-04-17 09:01 48.00519 -27.07700 34221 ft 450 kts 248°
2026-04-17 09:02 47.97786 -27.16100 34225 ft 450 kts 248°
2026-04-17 09:02 47.95065 -27.24435 34222 ft 450 kts 248°
2026-04-17 09:03 47.92322 -27.32813 34222 ft 450 kts 248°
2026-04-17 09:03 47.89564 -27.41205 34227 ft 451 kts 248°
2026-04-17 09:04 47.86802 -27.49585 34224 ft 451 kts 248°
2026-04-17 09:04 47.84048 -27.57909 34225 ft 451 kts 248°
2026-04-17 09:05 47.81268 -27.66289 34216 ft 452 kts 248°
2026-04-17 09:05 47.78482 -27.74659 34227 ft 452 kts 248°
2026-04-17 09:06 47.75683 -27.83040 34229 ft 453 kts 248°
2026-04-17 09:06 47.72874 -27.91421 34237 ft 453 kts 248°
2026-04-17 09:07 47.70079 -27.99737 34238 ft 454 kts 248°
2026-04-17 09:07 47.67264 -28.08087 34245 ft 454 kts 247°
2026-04-17 09:08 47.64417 -28.16501 34245 ft 455 kts 247°
2026-04-17 09:08 47.61571 -28.24887 34237 ft 455 kts 247°
2026-04-17 09:09 47.58737 -28.33208 34227 ft 456 kts 247°
2026-04-17 09:09 47.55876 -28.41585 34237 ft 456 kts 247°
2026-04-17 09:10 47.51562 -28.54162 34245 ft 457 kts 247°
2026-04-17 09:10 47.48675 -28.62544 34246 ft 457 kts 247°
2026-04-17 09:11 47.45781 -28.70922 34236 ft 458 kts 247°
2026-04-17 09:11 47.42896 -28.79247 34240 ft 459 kts 247°
2026-04-17 09:12 47.39982 -28.87627 34244 ft 459 kts 246°
2026-04-17 09:12 47.37057 -28.96010 34252 ft 459 kts 246°
2026-04-17 09:13 47.34124 -29.04391 34245 ft 460 kts 246°
2026-04-17 09:13 47.31203 -29.12713 34247 ft 461 kts 246°
2026-04-17 09:14 47.28254 -29.21086 34252 ft 461 kts 246°
2026-04-17 09:14 47.25296 -29.29457 34252 ft 461 kts 246°
2026-04-17 09:15 47.22332 -29.37821 34246 ft 461 kts 246°
2026-04-17 09:15 47.19356 -29.46194 34250 ft 462 kts 246°
2026-04-17 09:16 47.16394 -29.54497 34256 ft 462 kts 246°
2026-04-17 09:16 47.13404 -29.62859 34253 ft 462 kts 246°
2026-04-17 09:17 47.10413 -29.71211 34245 ft 462 kts 246°
2026-04-17 09:17 47.07415 -29.79562 34252 ft 463 kts 246°
2026-04-17 09:18 47.04430 -29.87847 34254 ft 463 kts 246°
2026-04-17 09:18 47.01341 -29.96132 34257 ft 465 kts 241°
2026-04-17 09:19 46.97344 -30.03626 34245 ft 471 kts 229°
2026-04-17 09:19 46.92496 -30.10116 34264 ft 473 kts 226°
2026-04-17 09:20 46.87682 -30.16587 34275 ft 473 kts 226°
2026-04-17 09:20 46.82855 -30.23110 34270 ft 473 kts 226°
2026-04-17 09:21 46.78018 -30.29628 34242 ft 473 kts 226°
2026-04-17 09:21 46.73180 -30.36128 34245 ft 473 kts 226°
2026-04-17 09:22 46.68367 -30.42578 34250 ft 473 kts 226°
2026-04-17 09:22 46.63520 -30.49058 34268 ft 473 kts 226°
2026-04-17 09:23 46.58660 -30.55536 34258 ft 474 kts 226°
2026-04-17 09:23 46.53790 -30.62010 34257 ft 475 kts 226°
2026-04-17 09:24 46.49737 -30.67382 34261 ft 475 kts 225°
2026-04-17 09:24 46.44061 -30.74881 34263 ft 475 kts 225°
2026-04-17 09:25 46.39173 -30.81322 34259 ft 475 kts 225°
2026-04-17 09:25 46.34280 -30.87752 34262 ft 475 kts 225°
2026-04-17 09:26 46.30206 -30.93093 34264 ft 475 kts 225°
2026-04-17 09:26 46.24505 -31.00549 34258 ft 476 kts 225°
2026-04-17 09:27 46.20388 -31.05920 34259 ft 476 kts 225°
2026-04-17 09:27 46.15501 -31.12280 34261 ft 476 kts 225°
2026-04-17 09:28 46.10573 -31.18678 34267 ft 477 kts 225°
2026-04-17 09:28 46.05643 -31.25063 34268 ft 477 kts 225°
2026-04-17 09:29 46.00705 -31.31442 34269 ft 477 kts 225°
2026-04-17 09:29 45.95765 -31.37808 34273 ft 477 kts 225°
2026-04-17 09:30 45.90853 -31.44121 34274 ft 477 kts 225°
2026-04-17 09:30 45.85901 -31.50471 34260 ft 478 kts 225°
2026-04-17 09:31 45.80937 -31.56820 34268 ft 478 kts 225°
2026-04-17 09:31 45.75968 -31.63159 34270 ft 478 kts 224°
2026-04-17 09:32 45.71026 -31.69449 34274 ft 479 kts 224°
2026-04-17 09:32 45.66047 -31.75768 34269 ft 479 kts 224°
2026-04-17 09:33 45.61060 -31.82085 34271 ft 479 kts 224°
2026-04-17 09:33 45.56068 -31.88390 34275 ft 479 kts 224°
2026-04-17 09:34 45.51070 -31.94688 34268 ft 480 kts 224°
2026-04-17 09:34 45.46097 -32.00940 34271 ft 480 kts 224°
2026-04-17 09:35 45.41079 -32.07232 34272 ft 481 kts 224°
2026-04-17 09:35 45.36059 -32.13511 34275 ft 481 kts 224°
2026-04-17 09:36 45.31031 -32.19784 34270 ft 481 kts 224°
2026-04-17 09:36 45.26031 -32.26008 34281 ft 481 kts 224°
2026-04-17 09:37 45.20992 -32.32265 34281 ft 481 kts 224°
2026-04-17 09:37 45.15952 -32.38507 34280 ft 481 kts 224°
2026-04-17 09:38 45.10906 -32.44744 34275 ft 481 kts 224°
2026-04-17 09:38 45.05888 -32.50928 34279 ft 482 kts 223°
2026-04-17 09:39 45.00833 -32.57143 34281 ft 482 kts 223°
2026-04-17 09:39 44.95770 -32.63353 34282 ft 482 kts 223°
2026-04-17 09:40 44.90706 -32.69550 34283 ft 482 kts 223°
2026-04-17 09:40 44.85672 -32.75696 34283 ft 482 kts 223°
2026-04-17 09:41 44.80600 -32.81873 34283 ft 482 kts 223°
2026-04-17 09:41 44.75526 -32.88037 34282 ft 482 kts 223°
2026-04-17 09:42 44.70452 -32.94186 34282 ft 482 kts 223°
2026-04-17 09:42 44.65409 -33.00283 34282 ft 482 kts 223°
2026-04-17 09:43 44.60324 -33.06416 34280 ft 482 kts 223°
2026-04-17 09:43 44.55242 -33.12530 34274 ft 482 kts 223°
2026-04-17 09:44 44.50154 -33.18638 34278 ft 482 kts 223°
2026-04-17 09:44 44.45062 -33.24736 34278 ft 482 kts 223°
2026-04-17 09:45 44.39995 -33.30789 34300 ft 482 kts 223°
2026-04-17 09:45 44.34901 -33.36862 34270 ft 482 kts 223°
2026-04-17 09:46 44.29799 -33.42927 34254 ft 482 kts 222°
2026-04-17 09:46 44.24696 -33.48980 34261 ft 481 kts 222°
2026-04-17 09:47 44.19628 -33.54978 34295 ft 481 kts 222°
2026-04-17 09:47 44.14519 -33.61009 34296 ft 481 kts 222°
2026-04-17 09:48 44.09405 -33.67032 34285 ft 482 kts 222°
2026-04-17 09:48 44.04289 -33.73045 34276 ft 482 kts 222°
2026-04-17 09:49 43.99209 -33.79001 34271 ft 481 kts 222°
2026-04-17 09:49 43.94097 -33.84980 34278 ft 481 kts 222°
2026-04-17 09:50 43.88985 -33.90945 34263 ft 480 kts 222°
2026-04-17 09:50 43.83868 -33.96902 34271 ft 480 kts 222°
2026-04-17 09:51 43.78786 -34.02806 34274 ft 480 kts 222°
2026-04-17 09:51 43.73671 -34.08733 34265 ft 480 kts 221°
2026-04-17 09:52 43.68548 -34.14657 34257 ft 480 kts 221°
2026-04-17 09:52 43.63430 -34.20560 34274 ft 479 kts 221°
2026-04-17 09:53 43.58350 -34.26406 34271 ft 478 kts 221°
2026-04-17 09:53 43.53243 -34.32271 34252 ft 478 kts 221°
2026-04-17 09:54 43.48129 -34.38131 34256 ft 478 kts 221°
2026-04-17 09:54 43.43017 -34.43973 34252 ft 478 kts 221°
2026-04-17 09:55 43.37937 -34.49767 34249 ft 478 kts 221°
2026-04-17 09:55 43.32824 -34.55584 34242 ft 477 kts 221°
2026-04-17 09:56 43.27704 -34.61398 34248 ft 478 kts 221°
2026-04-17 09:56 43.22579 -34.67203 34249 ft 478 kts 221°
2026-04-17 09:57 43.17490 -34.72954 34246 ft 478 kts 221°
2026-04-17 09:57 43.12360 -34.78740 34246 ft 478 kts 221°
2026-04-17 09:58 43.07222 -34.84521 34243 ft 478 kts 221°
2026-04-17 09:58 43.02080 -34.90293 34243 ft 478 kts 221°
2026-04-17 09:59 42.96943 -34.96046 34243 ft 478 kts 221°
2026-04-17 09:59 42.91834 -35.01756 34246 ft 477 kts 221°
2026-04-17 10:00 42.86696 -35.07483 34242 ft 477 kts 221°
2026-04-17 10:00 42.81562 -35.13196 34228 ft 476 kts 221°
2026-04-17 10:01 42.76432 -35.18892 34224 ft 476 kts 221°
2026-04-17 10:01 42.71300 -35.24576 34233 ft 475 kts 221°
2026-04-17 10:02 42.66201 -35.30213 34228 ft 475 kts 221°
2026-04-17 10:02 42.61063 -35.35879 34245 ft 475 kts 221°
2026-04-17 10:03 42.55937 -35.41521 34248 ft 475 kts 221°
2026-04-17 10:03 42.50805 -35.47157 34214 ft 474 kts 221°
2026-04-17 10:04 42.45716 -35.52732 34225 ft 473 kts 221°
2026-04-17 10:04 42.40593 -35.58335 34225 ft 473 kts 221°
2026-04-17 10:05 42.35475 -35.63918 34221 ft 473 kts 221°
2026-04-17 10:05 42.30351 -35.69496 34214 ft 473 kts 221°
2026-04-17 10:06 42.25262 -35.75025 34216 ft 473 kts 221°
2026-04-17 10:06 42.20142 -35.80576 34220 ft 472 kts 221°
2026-04-17 10:07 42.15026 -35.86109 34206 ft 471 kts 221°
2026-04-17 10:07 42.09906 -35.91636 34206 ft 472 kts 221°
2026-04-17 10:08 42.04818 -35.97116 34206 ft 472 kts 221°
2026-04-17 10:08 41.99691 -36.02628 34204 ft 472 kts 221°
2026-04-17 10:09 41.94561 -36.08128 34198 ft 472 kts 221°
2026-04-17 10:09 41.89424 -36.13626 34211 ft 472 kts 221°
2026-04-17 10:10 41.84320 -36.19078 34204 ft 472 kts 221°
2026-04-17 10:11 41.76610 -36.27290 34203 ft 472 kts 221°
2026-04-17 10:11 41.71473 -36.32749 34198 ft 472 kts 221°
2026-04-17 10:12 41.66314 -36.38218 34196 ft 472 kts 221°
2026-04-17 10:12 41.61196 -36.43631 34194 ft 472 kts 221°
2026-04-17 10:13 41.56041 -36.49074 34199 ft 472 kts 221°
2026-04-17 10:13 41.50887 -36.54506 34200 ft 472 kts 221°
2026-04-17 10:14 41.45733 -36.59924 34198 ft 472 kts 221°
2026-04-17 10:14 41.40577 -36.65333 34197 ft 472 kts 221°
2026-04-17 10:15 41.35453 -36.70698 34194 ft 472 kts 221°
2026-04-17 10:15 41.30290 -36.76090 34190 ft 471 kts 221°
2026-04-17 10:16 41.25132 -36.81470 34190 ft 471 kts 221°
2026-04-17 10:16 41.19972 -36.86839 34194 ft 471 kts 221°
2026-04-17 10:17 41.14842 -36.92165 34192 ft 470 kts 221°
2026-04-17 10:17 41.09679 -36.97514 34188 ft 470 kts 221°
2026-04-17 10:18 41.04518 -37.02851 34185 ft 470 kts 221°
2026-04-17 10:18 40.99357 -37.08176 34169 ft 470 kts 222°
2026-04-17 10:19 40.94192 -37.13492 34182 ft 470 kts 222°
2026-04-17 10:19 40.89029 -37.18801 34178 ft 470 kts 222°
2026-04-17 10:20 40.83864 -37.24101 34166 ft 470 kts 222°
2026-04-17 10:20 40.78737 -37.29347 34177 ft 469 kts 222°
2026-04-17 10:21 40.73570 -37.34626 34172 ft 469 kts 222°
2026-04-17 10:21 40.68406 -37.39890 34177 ft 469 kts 222°
2026-04-17 10:22 40.63229 -37.45150 34179 ft 469 kts 223°
2026-04-17 10:22 40.58054 -37.50409 34156 ft 470 kts 223°
2026-04-17 10:23 40.52880 -37.55655 34167 ft 470 kts 223°
2026-04-17 10:23 40.47703 -37.60889 34161 ft 470 kts 223°
2026-04-17 10:24 40.42516 -37.66126 34161 ft 470 kts 223°
2026-04-17 10:24 40.37348 -37.71332 34161 ft 471 kts 223°
2026-04-17 10:25 40.32146 -37.76556 34149 ft 471 kts 224°
2026-04-17 10:25 40.26939 -37.81783 34150 ft 472 kts 224°
2026-04-17 10:26 40.21723 -37.87009 34169 ft 472 kts 223°
2026-04-17 10:26 40.16519 -37.92204 34151 ft 471 kts 224°
2026-04-17 10:27 40.11308 -37.97404 34151 ft 471 kts 224°
2026-04-17 10:27 40.06131 -38.02560 34148 ft 471 kts 224°
2026-04-17 10:28 40.00911 -38.07743 34141 ft 472 kts 224°
2026-04-17 10:28 39.98325 -38.10309 34148 ft 472 kts 224°
2026-04-17 10:29 39.93092 -38.15494 34144 ft 472 kts 224°
2026-04-17 10:29 39.87870 -38.20656 34144 ft 471 kts 224°
2026-04-17 10:30 39.82640 -38.25817 34136 ft 471 kts 224°
2026-04-17 10:30 39.77441 -38.30937 34138 ft 472 kts 224°
2026-04-17 10:31 39.72200 -38.36088 34111 ft 472 kts 225°
2026-04-17 10:31 39.66963 -38.41224 34131 ft 472 kts 225°
2026-04-17 10:32 39.61720 -38.46358 34137 ft 472 kts 224°
2026-04-17 10:32 39.56472 -38.51484 34097 ft 472 kts 225°
2026-04-17 10:33 39.51229 -38.56593 34125 ft 471 kts 225°
2026-04-17 10:33 39.46027 -38.61660 34120 ft 471 kts 225°
2026-04-17 10:34 39.40780 -38.66756 34095 ft 471 kts 226°
2026-04-17 10:34 39.35544 -38.71829 34120 ft 470 kts 226°
2026-04-17 10:35 39.30306 -38.76901 34118 ft 470 kts 226°
2026-04-17 10:35 39.25066 -38.81961 34108 ft 469 kts 227°
2026-04-17 10:36 39.19841 -38.86995 34116 ft 469 kts 227°
2026-04-17 10:36 39.14645 -38.91997 34115 ft 468 kts 227°
2026-04-17 10:37 39.09414 -38.97021 34122 ft 467 kts 227°
2026-04-17 10:37 39.04198 -39.02021 34123 ft 467 kts 227°
2026-04-17 10:38 38.98976 -39.07018 34100 ft 467 kts 227°
2026-04-17 10:38 38.93755 -39.12005 34091 ft 467 kts 226°
2026-04-17 10:39 38.88568 -39.16950 34097 ft 467 kts 226°
2026-04-17 10:39 38.83348 -39.21916 34094 ft 467 kts 226°
2026-04-17 10:40 38.78125 -39.26876 34079 ft 467 kts 226°
2026-04-17 10:40 38.72888 -39.31841 34088 ft 468 kts 226°
2026-04-17 10:41 38.67641 -39.36805 34093 ft 469 kts 226°
2026-04-17 10:41 38.62392 -39.41763 34064 ft 469 kts 226°
2026-04-17 10:42 38.57125 -39.46730 34094 ft 470 kts 226°
2026-04-17 10:42 38.51879 -39.51666 34104 ft 471 kts 226°
2026-04-17 10:43 38.46598 -39.56625 34088 ft 471 kts 226°
2026-04-17 10:43 38.41316 -39.61579 34087 ft 471 kts 226°
2026-04-17 10:44 38.36026 -39.66532 34090 ft 471 kts 226°
2026-04-17 10:44 38.30737 -39.71477 34094 ft 471 kts 226°
2026-04-17 10:45 38.25454 -39.76407 34085 ft 471 kts 225°
2026-04-17 10:45 38.20162 -39.81336 34063 ft 471 kts 226°
2026-04-17 10:46 38.14909 -39.86220 34076 ft 471 kts 226°
2026-04-17 10:46 38.09621 -39.91129 34078 ft 471 kts 225°
2026-04-17 10:47 38.04326 -39.96034 34064 ft 471 kts 225°
2026-04-17 10:47 37.99005 -40.00905 34081 ft 472 kts 224°
2026-04-17 10:48 37.93634 -40.05705 34076 ft 471 kts 225°
2026-04-17 10:48 37.88362 -40.10571 34052 ft 471 kts 225°
2026-04-17 10:49 37.83046 -40.15439 34068 ft 472 kts 225°
2026-04-17 10:49 37.78608 -40.19479 34073 ft 473 kts 225°
2026-04-17 10:50 37.73257 -40.24337 34063 ft 473 kts 225°
2026-04-17 10:50 37.67901 -40.29193 34081 ft 474 kts 225°
2026-04-17 10:51 37.62530 -40.34050 34088 ft 474 kts 225°
2026-04-17 10:51 37.57161 -40.38895 34077 ft 475 kts 225°
2026-04-17 10:52 37.51811 -40.43715 34185 ft 476 kts 225°
2026-04-17 10:52 37.49108 -40.46146 34318 ft 477 kts 225°
2026-04-17 10:52 37.46401 -40.48578 34406 ft 477 kts 225°
2026-04-17 10:52 37.43698 -40.51005 34526 ft 478 kts 225°
2026-04-17 10:53 37.40993 -40.53431 34690 ft 477 kts 224°
2026-04-17 10:53 37.38291 -40.55851 34822 ft 477 kts 224°
2026-04-17 10:53 37.35595 -40.58265 34942 ft 477 kts 224°
2026-04-17 10:53 37.32872 -40.60702 35048 ft 478 kts 224°
2026-04-17 10:54 37.30157 -40.63130 35178 ft 478 kts 224°
2026-04-17 10:54 37.27441 -40.65554 35302 ft 479 kts 224°
2026-04-17 10:54 37.24727 -40.67975 35411 ft 479 kts 224°
2026-04-17 10:54 37.22011 -40.70396 35533 ft 479 kts 224°
2026-04-17 10:55 37.19327 -40.72786 35656 ft 479 kts 224°
2026-04-17 10:55 37.16610 -40.75205 35761 ft 479 kts 224°
2026-04-17 10:55 37.13888 -40.77626 35872 ft 479 kts 224°
2026-04-17 10:56 37.08444 -40.82460 36066 ft 480 kts 224°
2026-04-17 10:56 37.02999 -40.87284 36096 ft 479 kts 224°
2026-04-17 10:57 36.97558 -40.92095 36079 ft 479 kts 223°
2026-04-17 10:57 36.92107 -40.96911 36099 ft 480 kts 223°
2026-04-17 10:58 36.86654 -41.01717 36100 ft 479 kts 223°
2026-04-17 10:58 36.81202 -41.06513 36099 ft 479 kts 223°
2026-04-17 10:59 36.75745 -41.11306 36102 ft 479 kts 223°
2026-04-17 10:59 36.70324 -41.16058 36105 ft 479 kts 223°
2026-04-17 11:00 36.64866 -41.20835 36106 ft 479 kts 223°
2026-04-17 11:00 36.59400 -41.25611 36110 ft 479 kts 223°
2026-04-17 11:01 36.53935 -41.30377 36097 ft 479 kts 223°
2026-04-17 11:01 36.48473 -41.35132 36091 ft 479 kts 223°
2026-04-17 11:02 36.43006 -41.39882 36109 ft 479 kts 223°
2026-04-17 11:02 36.37537 -41.44627 36119 ft 479 kts 223°
2026-04-17 11:03 36.32093 -41.49342 36127 ft 480 kts 223°
2026-04-17 11:03 36.26614 -41.54078 36131 ft 480 kts 223°
2026-04-17 11:04 36.21135 -41.58809 36120 ft 479 kts 222°
2026-04-17 11:04 36.15663 -41.63522 36124 ft 479 kts 222°
2026-04-17 11:05 36.10188 -41.68230 36124 ft 479 kts 222°
2026-04-17 11:05 36.04712 -41.72931 36128 ft 479 kts 222°
2026-04-17 11:06 35.99267 -41.77598 36116 ft 479 kts 222°
2026-04-17 11:06 35.93791 -41.82282 36136 ft 478 kts 221°
2026-04-17 11:07 35.88321 -41.86954 36139 ft 478 kts 221°
2026-04-17 11:07 35.82856 -41.91613 36136 ft 478 kts 221°
2026-04-17 11:08 35.77389 -41.96267 36140 ft 477 kts 221°
2026-04-17 11:08 35.71922 -42.00912 36152 ft 477 kts 221°
2026-04-17 11:09 35.66468 -42.05540 36135 ft 476 kts 221°
2026-04-17 11:09 35.61017 -42.10157 36138 ft 476 kts 221°
2026-04-17 11:10 35.52842 -42.17065 36152 ft 475 kts 221°
2026-04-17 11:10 35.47420 -42.21638 36164 ft 475 kts 221°
2026-04-17 11:11 35.41970 -42.26226 36144 ft 475 kts 221°
2026-04-17 11:11 35.36514 -42.30813 36124 ft 475 kts 221°
2026-04-17 11:12 35.31057 -42.35393 36146 ft 476 kts 221°
2026-04-17 11:12 35.25579 -42.39981 36154 ft 476 kts 221°
2026-04-17 11:13 35.20106 -42.44557 36146 ft 477 kts 221°
2026-04-17 11:13 35.14623 -42.49136 36155 ft 478 kts 221°
2026-04-17 11:14 35.09167 -42.53682 36159 ft 478 kts 221°
2026-04-17 11:14 35.03662 -42.58264 36161 ft 479 kts 221°
2026-04-17 11:15 34.98151 -42.62843 36161 ft 480 kts 221°
2026-04-17 11:15 34.92625 -42.67426 36167 ft 480 kts 221°
2026-04-17 11:16 34.87092 -42.72007 36171 ft 481 kts 220°
2026-04-17 11:16 34.81547 -42.76591 36176 ft 481 kts 220°
2026-04-17 11:17 34.76042 -42.81133 36167 ft 481 kts 220°
2026-04-17 11:17 34.70494 -42.85704 36171 ft 482 kts 220°
2026-04-17 11:18 34.64944 -42.90270 36184 ft 482 kts 220°
2026-04-17 11:18 34.59384 -42.94836 36189 ft 482 kts 220°
2026-04-17 11:19 34.53818 -42.99399 36179 ft 482 kts 220°
2026-04-17 11:19 34.48252 -43.03955 36155 ft 482 kts 220°
2026-04-17 11:20 34.42687 -43.08503 36188 ft 483 kts 220°
2026-04-17 11:20 34.37117 -43.13046 36186 ft 483 kts 220°
2026-04-17 11:21 34.31576 -43.17560 36191 ft 483 kts 220°
2026-04-17 11:21 34.25990 -43.22101 36191 ft 483 kts 220°
2026-04-17 11:22 34.20402 -43.26638 36189 ft 483 kts 220°
2026-04-17 11:22 34.14819 -43.31163 36189 ft 483 kts 220°
2026-04-17 11:23 34.09232 -43.35685 36191 ft 483 kts 220°
2026-04-17 11:23 34.03673 -43.40176 36193 ft 483 kts 220°
2026-04-17 11:24 33.98080 -43.44688 36198 ft 483 kts 220°
2026-04-17 11:24 33.92485 -43.49193 36196 ft 483 kts 220°
2026-04-17 11:25 33.86932 -43.53657 36201 ft 483 kts 220°
2026-04-17 11:25 33.81333 -43.58152 36203 ft 483 kts 219°
2026-04-17 11:26 33.75739 -43.62636 36202 ft 483 kts 219°
2026-04-17 11:26 33.70155 -43.67105 36205 ft 483 kts 219°
2026-04-17 11:27 33.64565 -43.71571 36205 ft 482 kts 219°
2026-04-17 11:27 33.58961 -43.76042 36195 ft 483 kts 219°
2026-04-17 11:28 33.53394 -43.80476 36200 ft 483 kts 219°
2026-04-17 11:28 33.47787 -43.84934 36206 ft 484 kts 219°
2026-04-17 11:29 33.42174 -43.89390 36209 ft 484 kts 218°
2026-04-17 11:29 33.36557 -43.93842 36211 ft 484 kts 218°
2026-04-17 11:30 33.30939 -43.98287 36202 ft 484 kts 218°
2026-04-17 11:30 33.25314 -44.02733 36210 ft 485 kts 218°
2026-04-17 11:31 33.19671 -44.07185 36211 ft 485 kts 218°
2026-04-17 11:31 33.14070 -44.11597 36214 ft 485 kts 218°
2026-04-17 11:32 33.08422 -44.16038 36223 ft 486 kts 218°
2026-04-17 11:32 33.02778 -44.20471 36221 ft 486 kts 218°
2026-04-17 11:33 32.97131 -44.24898 36219 ft 486 kts 218°
2026-04-17 11:33 32.91484 -44.29318 36223 ft 486 kts 218°
2026-04-17 11:34 32.85826 -44.33740 36224 ft 486 kts 218°
2026-04-17 11:34 32.80165 -44.38158 36225 ft 486 kts 218°
2026-04-17 11:35 32.74539 -44.42541 36217 ft 486 kts 218°
2026-04-17 11:35 32.68875 -44.46949 36214 ft 487 kts 218°
2026-04-17 11:36 32.64166 -44.50607 36218 ft 487 kts 217°
2026-04-17 11:36 32.58485 -44.55014 36220 ft 488 kts 217°
2026-04-17 11:37 32.52799 -44.59418 36229 ft 488 kts 217°
2026-04-17 11:37 32.47107 -44.63821 36230 ft 488 kts 217°
2026-04-17 11:38 32.41415 -44.68217 36219 ft 488 kts 217°
2026-04-17 11:38 32.35721 -44.72607 36239 ft 489 kts 217°
2026-04-17 11:39 32.30007 -44.77005 36245 ft 489 kts 217°
2026-04-17 11:39 32.24334 -44.81367 36217 ft 490 kts 217°
2026-04-17 11:40 32.18618 -44.85757 36219 ft 490 kts 217°
2026-04-17 11:40 32.12888 -44.90152 36238 ft 490 kts 217°
2026-04-17 11:41 32.07197 -44.94512 36241 ft 491 kts 216°
2026-04-17 11:41 32.01492 -44.98926 36226 ft 489 kts 220°
2026-04-17 11:42 31.96638 -45.04407 36237 ft 482 kts 233°
2026-04-17 11:42 31.92214 -45.10351 36215 ft 483 kts 232°
2026-04-17 11:43 31.87763 -45.16289 36233 ft 483 kts 232°
2026-04-17 11:43 31.83298 -45.22224 36242 ft 484 kts 232°
2026-04-17 11:44 31.78837 -45.28146 36233 ft 484 kts 232°
2026-04-17 11:44 31.74397 -45.34026 36237 ft 485 kts 232°
2026-04-17 11:45 31.69913 -45.39952 36246 ft 485 kts 232°
2026-04-17 11:45 31.65426 -45.45875 36236 ft 485 kts 231°
2026-04-17 11:46 31.60931 -45.51798 36243 ft 485 kts 231°
2026-04-17 11:46 31.56434 -45.57715 36245 ft 485 kts 231°
2026-04-17 11:47 31.51942 -45.63615 36250 ft 485 kts 231°
2026-04-17 11:47 31.47476 -45.69474 36249 ft 485 kts 231°
2026-04-17 11:48 31.42973 -45.75371 36245 ft 485 kts 231°
2026-04-17 11:48 31.38474 -45.81254 36245 ft 485 kts 231°
2026-04-17 11:49 31.33974 -45.87128 36245 ft 485 kts 231°
2026-04-17 11:49 31.29468 -45.93004 36239 ft 485 kts 231°
2026-04-17 11:50 31.24963 -45.98868 36247 ft 485 kts 231°
2026-04-17 11:50 31.20468 -46.04707 36246 ft 485 kts 231°
2026-04-17 11:51 31.15950 -46.10571 36239 ft 485 kts 230°
2026-04-17 11:51 31.11425 -46.16432 36243 ft 486 kts 230°
2026-04-17 11:52 31.06901 -46.22284 36246 ft 486 kts 230°
2026-04-17 11:52 31.02365 -46.28142 36244 ft 486 kts 230°
2026-04-17 11:53 30.97827 -46.33994 36242 ft 487 kts 230°
2026-04-17 11:53 30.93279 -46.39848 36249 ft 486 kts 230°
2026-04-17 11:54 30.88735 -46.45691 36246 ft 487 kts 230°
2026-04-17 11:54 30.84213 -46.51494 36247 ft 487 kts 230°
2026-04-17 11:55 30.79660 -46.57330 36251 ft 487 kts 229°
2026-04-17 11:55 30.75106 -46.63159 36252 ft 487 kts 229°
2026-04-17 11:56 30.70548 -46.68982 36249 ft 487 kts 229°
2026-04-17 11:56 30.65991 -46.74796 36249 ft 486 kts 229°
2026-04-17 11:57 30.61427 -46.80611 36250 ft 486 kts 229°
2026-04-17 11:57 30.56898 -46.86370 36248 ft 486 kts 229°
2026-04-17 11:58 30.52336 -46.92164 36245 ft 486 kts 229°
2026-04-17 11:58 30.47777 -46.97948 36242 ft 486 kts 229°
2026-04-17 11:59 30.43214 -47.03726 36244 ft 486 kts 229°
2026-04-17 11:59 30.38647 -47.09499 36244 ft 486 kts 229°
2026-04-17 12:00 30.34079 -47.15267 36243 ft 486 kts 228°
2026-04-17 12:00 30.29507 -47.21030 36244 ft 486 kts 228°
2026-04-17 12:01 30.24964 -47.26749 36244 ft 486 kts 228°
2026-04-17 12:01 30.20387 -47.32502 36241 ft 486 kts 228°
2026-04-17 12:02 30.15797 -47.38262 36241 ft 486 kts 228°
2026-04-17 12:02 30.11214 -47.44006 36238 ft 486 kts 228°
2026-04-17 12:03 30.06629 -47.49744 36238 ft 486 kts 227°
2026-04-17 12:03 30.02074 -47.55436 36238 ft 486 kts 227°
2026-04-17 12:04 29.97489 -47.61155 36238 ft 486 kts 227°
2026-04-17 12:04 29.92899 -47.66876 36239 ft 485 kts 227°
2026-04-17 12:05 29.88323 -47.72568 36241 ft 485 kts 227°
2026-04-17 12:05 29.83716 -47.78290 36240 ft 485 kts 227°
2026-04-17 12:06 29.79130 -47.83979 36241 ft 485 kts 227°
2026-04-17 12:06 29.74539 -47.89667 36240 ft 484 kts 227°
2026-04-17 12:07 29.69975 -47.95311 36236 ft 484 kts 227°
2026-04-17 12:07 29.65383 -48.00982 36240 ft 484 kts 227°
2026-04-17 12:08 29.60791 -48.06647 36235 ft 483 kts 227°
2026-04-17 12:08 29.56204 -48.12295 36226 ft 483 kts 227°
2026-04-17 12:09 29.51617 -48.17937 36222 ft 483 kts 227°
2026-04-17 12:09 29.47030 -48.23570 36231 ft 482 kts 227°
2026-04-17 12:10 29.42450 -48.29187 36245 ft 482 kts 227°
2026-04-17 12:10 29.37865 -48.34801 36244 ft 481 kts 227°
2026-04-17 12:11 29.33283 -48.40404 36226 ft 481 kts 227°
2026-04-17 12:12 29.26436 -48.48763 36220 ft 481 kts 227°
2026-04-17 12:12 29.21845 -48.54357 36224 ft 481 kts 227°
2026-04-17 12:13 29.17255 -48.59942 36249 ft 481 kts 227°
2026-04-17 12:13 29.12667 -48.65517 36245 ft 481 kts 227°
2026-04-17 12:14 29.08100 -48.71060 36239 ft 481 kts 227°
2026-04-17 12:14 29.03505 -48.76625 36213 ft 481 kts 227°
2026-04-17 12:15 28.98909 -48.82188 36215 ft 481 kts 227°
2026-04-17 12:15 28.94315 -48.87739 36238 ft 481 kts 227°
2026-04-17 12:16 28.89722 -48.93280 36239 ft 478 kts 227°
2026-04-17 12:16 28.85146 -48.98794 36238 ft 479 kts 227°
2026-04-17 12:17 28.80601 -49.04266 36235 ft 479 kts 227°
2026-04-17 12:17 28.76024 -49.09773 36213 ft 480 kts 227°
2026-04-17 12:18 28.71949 -49.15751 36281 ft 478 kts 239°
2026-04-17 12:18 28.70363 -49.19081 36454 ft 476 kts 245°
2026-04-17 12:18 28.69078 -49.22551 36585 ft 476 kts 250°
2026-04-17 12:18 28.67901 -49.26074 36730 ft 475 kts 249°
2026-04-17 12:19 28.66713 -49.29574 36889 ft 474 kts 250°
2026-04-17 12:19 28.65522 -49.33076 37040 ft 473 kts 249°
2026-04-17 12:19 28.64336 -49.36566 37206 ft 472 kts 249°
2026-04-17 12:19 28.63152 -49.40053 37389 ft 470 kts 249°
2026-04-17 12:20 28.61975 -49.43524 37524 ft 470 kts 249°
2026-04-17 12:20 28.60798 -49.46992 37677 ft 469 kts 249°
2026-04-17 12:20 28.59625 -49.50445 37829 ft 468 kts 249°
2026-04-17 12:20 28.58449 -49.53904 37940 ft 468 kts 249°
2026-04-17 12:21 28.57277 -49.57348 38091 ft 467 kts 249°
2026-04-17 12:21 28.55325 -49.63076 38224 ft 466 kts 249°
2026-04-17 12:22 28.52603 -49.71047 38224 ft 464 kts 249°
2026-04-17 12:22 28.50266 -49.77880 38222 ft 465 kts 249°
2026-04-17 12:23 28.48296 -49.83627 38223 ft 465 kts 249°
2026-04-17 12:23 28.45958 -49.90437 38221 ft 466 kts 249°
2026-04-17 12:24 28.43601 -49.97288 38224 ft 466 kts 249°
2026-04-17 12:24 28.41245 -50.04120 38226 ft 461 kts 249°
2026-04-17 12:25 28.38895 -50.10919 38221 ft 461 kts 249°
2026-04-17 12:25 28.36542 -50.17710 38224 ft 462 kts 249°
2026-04-17 12:26 28.34183 -50.24506 38222 ft 463 kts 249°
2026-04-17 12:26 28.31839 -50.31245 38217 ft 463 kts 249°
2026-04-17 12:27 28.29481 -50.38007 38226 ft 458 kts 249°
2026-04-17 12:27 28.27129 -50.44746 38223 ft 460 kts 249°
2026-04-17 12:28 28.24762 -50.51514 38217 ft 461 kts 249°
2026-04-17 12:28 28.22396 -50.58265 38222 ft 461 kts 249°
2026-04-17 12:29 28.20027 -50.65012 38219 ft 460 kts 249°
2026-04-17 12:29 28.17673 -50.71704 38215 ft 459 kts 249°
2026-04-17 12:30 28.15307 -50.78421 38218 ft 459 kts 249°
2026-04-17 12:30 28.12931 -50.85146 38220 ft 459 kts 249°
2026-04-17 12:31 28.10558 -50.91861 38221 ft 460 kts 249°
2026-04-17 12:31 28.08172 -50.98598 38225 ft 461 kts 249°
2026-04-17 12:32 28.05791 -51.05303 38219 ft 457 kts 249°
2026-04-17 12:32 28.03415 -51.11986 38215 ft 458 kts 249°
2026-04-17 12:33 28.01048 -51.18634 38218 ft 458 kts 249°
2026-04-17 12:33 27.98662 -51.25321 38216 ft 458 kts 249°
2026-04-17 12:34 27.96276 -51.31995 38215 ft 458 kts 249°
2026-04-17 12:34 27.93887 -51.38664 38217 ft 457 kts 249°
2026-04-17 12:35 27.91498 -51.45323 38218 ft 457 kts 249°
2026-04-17 12:35 27.89104 -51.51985 38218 ft 457 kts 249°
2026-04-17 12:37 27.79521 -51.78528 38214 ft 456 kts 249°
2026-04-17 12:38 27.77119 -51.85154 38212 ft 456 kts 248°
2026-04-17 12:38 27.74710 -51.91786 38212 ft 456 kts 248°
2026-04-17 12:39 27.72298 -51.98412 38214 ft 456 kts 248°
2026-04-17 12:39 27.69885 -52.05032 38213 ft 456 kts 248°
2026-04-17 12:40 27.67485 -52.11607 38215 ft 456 kts 248°
2026-04-17 12:40 27.65047 -52.18270 38215 ft 456 kts 248°
2026-04-17 12:41 27.62625 -52.24880 38216 ft 456 kts 248°
2026-04-17 12:41 27.60212 -52.31457 38208 ft 457 kts 248°
2026-04-17 12:42 27.57781 -52.38068 38212 ft 457 kts 248°
2026-04-17 12:42 27.55335 -52.44705 38213 ft 457 kts 248°
2026-04-17 12:43 27.52889 -52.51334 38216 ft 458 kts 248°
2026-04-17 12:43 27.50444 -52.57952 38215 ft 458 kts 248°
2026-04-17 12:44 27.47989 -52.64580 38216 ft 458 kts 248°
2026-04-17 12:44 27.45532 -52.71206 38218 ft 458 kts 248°
2026-04-17 12:45 27.43071 -52.77829 38219 ft 458 kts 248°
2026-04-17 12:45 27.40628 -52.84395 38218 ft 458 kts 248°
2026-04-17 12:46 27.38163 -52.91006 38219 ft 458 kts 248°
2026-04-17 12:46 27.35695 -52.97614 38215 ft 458 kts 248°
2026-04-17 12:47 27.33223 -53.04223 38217 ft 458 kts 248°
2026-04-17 12:47 27.30747 -53.10831 38218 ft 458 kts 248°
2026-04-17 12:48 27.28270 -53.17430 38214 ft 458 kts 248°
2026-04-17 12:48 27.25788 -53.24030 38216 ft 458 kts 248°
2026-04-17 12:49 27.23305 -53.30625 38211 ft 458 kts 247°
2026-04-17 12:49 27.20821 -53.37209 38213 ft 458 kts 247°
2026-04-17 12:50 27.18347 -53.43754 38220 ft 458 kts 247°
2026-04-17 12:50 27.15855 -53.50337 38216 ft 457 kts 247°
2026-04-17 12:51 27.13363 -53.56911 38217 ft 457 kts 247°
2026-04-17 12:51 27.10870 -53.63474 38217 ft 457 kts 247°
2026-04-17 12:52 27.08372 -53.70041 38208 ft 457 kts 247°
2026-04-17 12:52 27.05875 -53.76595 38201 ft 457 kts 247°
2026-04-17 12:53 27.03373 -53.83150 38216 ft 456 kts 247°
2026-04-17 12:53 27.00875 -53.89684 38213 ft 456 kts 247°
2026-04-17 12:54 26.98389 -53.96175 38214 ft 456 kts 247°
2026-04-17 12:54 26.95884 -54.02705 38207 ft 456 kts 247°
2026-04-17 12:55 26.93373 -54.09241 38209 ft 456 kts 247°
2026-04-17 12:55 26.90860 -54.15769 38215 ft 456 kts 247°
2026-04-17 12:56 26.88350 -54.22281 38212 ft 455 kts 247°
2026-04-17 12:56 26.85835 -54.28795 38212 ft 455 kts 247°
2026-04-17 12:57 26.83319 -54.35301 38211 ft 455 kts 247°
2026-04-17 12:57 26.80795 -54.41816 38209 ft 455 kts 246°
2026-04-17 12:58 26.78270 -54.48323 38208 ft 455 kts 246°
2026-04-17 12:58 26.75763 -54.54774 38215 ft 455 kts 246°
2026-04-17 12:59 26.73236 -54.61266 38212 ft 454 kts 246°
2026-04-17 12:59 26.70707 -54.67752 38213 ft 454 kts 246°
2026-04-17 13:00 26.68178 -54.74229 38209 ft 454 kts 246°
2026-04-17 13:00 26.65645 -54.80705 38210 ft 454 kts 246°
2026-04-17 13:01 26.63109 -54.87177 38215 ft 454 kts 246°
2026-04-17 13:01 26.60584 -54.93610 38213 ft 451 kts 246°
2026-04-17 13:02 26.58073 -55.00002 38211 ft 452 kts 246°
2026-04-17 13:02 26.55538 -55.06442 38212 ft 454 kts 246°
2026-04-17 13:03 26.52995 -55.12892 38211 ft 453 kts 246°
2026-04-17 13:03 26.50450 -55.19337 38209 ft 454 kts 246°
2026-04-17 13:04 26.47903 -55.25774 38206 ft 450 kts 246°
2026-04-17 13:04 26.45375 -55.32158 38209 ft 452 kts 246°
2026-04-17 13:05 26.42832 -55.38569 38208 ft 451 kts 246°
2026-04-17 13:05 26.40284 -55.44981 38209 ft 451 kts 246°
2026-04-17 13:06 26.37734 -55.51387 38211 ft 451 kts 246°
2026-04-17 13:06 26.35182 -55.57791 38205 ft 452 kts 246°
2026-04-17 13:07 26.32643 -55.64148 38202 ft 450 kts 246°
2026-04-17 13:07 26.30106 -55.70492 38210 ft 448 kts 246°
2026-04-17 13:08 26.27561 -55.76848 38208 ft 449 kts 246°
2026-04-17 13:08 26.25440 -55.82138 38210 ft 451 kts 246°
2026-04-17 13:09 26.22877 -55.88520 38212 ft 451 kts 246°
2026-04-17 13:09 26.20313 -55.94894 38203 ft 451 kts 246°
2026-04-17 13:10 26.17747 -56.01264 38202 ft 450 kts 246°
2026-04-17 13:10 26.15178 -56.07634 38202 ft 450 kts 246°
2026-04-17 13:11 26.12610 -56.13988 38204 ft 450 kts 246°
2026-04-17 13:11 26.10055 -56.20302 38204 ft 450 kts 246°
2026-04-17 13:12 26.07462 -56.26699 38198 ft 451 kts 246°
2026-04-17 13:12 26.03606 -56.36195 38197 ft 452 kts 246°
2026-04-17 13:13 26.01026 -56.42535 38208 ft 448 kts 246°
2026-04-17 13:13 25.98450 -56.48859 38203 ft 449 kts 246°
2026-04-17 13:14 25.95869 -56.55186 38201 ft 449 kts 246°
2026-04-17 13:14 25.93295 -56.61484 38205 ft 452 kts 246°
2026-04-17 13:15 25.90691 -56.67845 38204 ft 452 kts 246°
2026-04-17 13:15 25.88089 -56.74194 38202 ft 452 kts 246°
2026-04-17 13:16 25.85499 -56.80499 38199 ft 444 kts 246°
2026-04-17 13:16 25.82927 -56.86755 38200 ft 448 kts 246°
2026-04-17 13:17 25.80331 -56.93064 38201 ft 449 kts 246°
2026-04-17 13:17 25.77747 -56.99330 38197 ft 449 kts 246°
2026-04-17 13:18 25.75143 -57.05637 38200 ft 449 kts 246°
2026-04-17 13:18 25.72538 -57.11934 38199 ft 449 kts 246°
2026-04-17 13:19 25.69927 -57.18235 38195 ft 446 kts 246°
2026-04-17 13:19 25.67335 -57.24484 38196 ft 446 kts 246°
2026-04-17 13:20 25.64754 -57.30698 38198 ft 447 kts 246°
2026-04-17 13:20 25.62149 -57.36960 38197 ft 447 kts 246°
2026-04-17 13:21 25.59538 -57.43227 38201 ft 450 kts 246°
2026-04-17 13:21 25.56906 -57.49536 38191 ft 451 kts 246°
2026-04-17 13:22 25.54282 -57.55814 38196 ft 445 kts 246°
2026-04-17 13:22 25.51694 -57.61998 38192 ft 443 kts 246°
2026-04-17 13:23 25.49095 -57.68202 38193 ft 446 kts 246°
2026-04-17 13:23 25.46475 -57.74445 38194 ft 447 kts 246°
2026-04-17 13:24 25.43853 -57.80685 38192 ft 447 kts 246°
2026-04-17 13:24 25.41249 -57.86871 38192 ft 447 kts 246°
2026-04-17 13:25 25.38623 -57.93104 38179 ft 447 kts 246°
2026-04-17 13:25 25.36002 -57.99312 38185 ft 444 kts 246°
2026-04-17 13:26 25.33392 -58.05489 38191 ft 444 kts 246°
2026-04-17 13:26 25.30768 -58.11687 38187 ft 444 kts 246°
2026-04-17 13:27 25.28146 -58.17873 38188 ft 444 kts 246°
2026-04-17 13:27 25.25519 -58.24064 38183 ft 447 kts 246°
2026-04-17 13:28 25.22885 -58.30261 38195 ft 450 kts 246°
2026-04-17 13:28 25.20246 -58.36458 38185 ft 441 kts 246°
2026-04-17 13:29 25.17633 -58.42588 38187 ft 441 kts 246°
2026-04-17 13:29 25.15013 -58.48727 38191 ft 442 kts 246°
2026-04-17 13:30 25.12376 -58.54898 38187 ft 446 kts 246°
2026-04-17 13:30 25.09730 -58.61078 38183 ft 445 kts 246°
2026-04-17 13:31 25.07082 -58.67255 38180 ft 445 kts 246°
2026-04-17 13:31 25.04433 -58.73427 38164 ft 445 kts 246°
2026-04-17 13:32 25.01819 -58.79507 38180 ft 439 kts 246°
2026-04-17 13:32 24.99196 -58.85601 38182 ft 440 kts 246°
2026-04-17 13:33 24.96567 -58.91702 38182 ft 440 kts 246°
2026-04-17 13:33 24.93936 -58.97798 38180 ft 440 kts 246°
2026-04-17 13:34 24.91298 -59.03901 38179 ft 441 kts 246°
2026-04-17 13:34 24.88653 -59.10012 38176 ft 442 kts 246°
2026-04-17 13:35 24.86020 -59.16086 38176 ft 441 kts 246°
2026-04-17 13:35 24.83387 -59.22153 38179 ft 438 kts 246°
2026-04-17 13:36 24.80752 -59.28216 38178 ft 439 kts 246°
2026-04-17 13:36 24.78117 -59.34273 38178 ft 440 kts 246°
2026-04-17 13:37 24.75467 -59.40354 38174 ft 440 kts 246°
2026-04-17 13:37 24.72815 -59.46431 38171 ft 440 kts 246°
2026-04-17 13:38 24.70183 -59.52456 38170 ft 440 kts 246°
2026-04-17 13:38 24.67538 -59.58502 38170 ft 437 kts 246°
2026-04-17 13:39 24.64900 -59.64524 38172 ft 439 kts 246°
2026-04-17 13:39 24.62245 -59.70575 38176 ft 439 kts 245°
2026-04-17 13:40 24.59593 -59.76614 38176 ft 439 kts 245°
2026-04-17 13:40 24.56936 -59.82654 38174 ft 439 kts 245°
2026-04-17 13:41 24.54274 -59.88697 38169 ft 439 kts 245°
2026-04-17 13:41 24.51609 -59.94741 38161 ft 440 kts 245°
2026-04-17 13:42 24.48952 -60.00757 38163 ft 440 kts 245°
2026-04-17 13:42 24.46272 -60.06817 38169 ft 441 kts 245°
2026-04-17 13:43 24.43593 -60.12869 38173 ft 441 kts 245°
2026-04-17 13:43 24.41437 -60.17733 38169 ft 441 kts 245°
2026-04-17 13:44 24.38740 -60.23808 38164 ft 443 kts 245°
2026-04-17 13:44 24.36040 -60.29884 38166 ft 443 kts 245°
2026-04-17 13:45 24.33353 -60.35922 38170 ft 443 kts 245°
2026-04-17 13:45 24.30650 -60.41986 38165 ft 440 kts 245°
2026-04-17 13:46 24.27968 -60.47997 38166 ft 440 kts 245°
2026-04-17 13:46 24.25270 -60.54038 38165 ft 441 kts 245°
2026-04-17 13:47 24.22568 -60.60077 38163 ft 441 kts 245°
2026-04-17 13:47 24.19867 -60.66107 38166 ft 441 kts 245°
2026-04-17 13:48 24.17161 -60.72140 38163 ft 441 kts 245°
2026-04-17 13:48 24.14453 -60.78170 38152 ft 442 kts 245°
2026-04-17 13:49 24.11740 -60.84204 38172 ft 441 kts 245°
2026-04-17 13:49 24.09027 -60.90230 38175 ft 441 kts 245°
2026-04-17 13:50 24.06315 -60.96244 38177 ft 441 kts 245°
2026-04-17 13:50 24.03613 -61.02230 38154 ft 441 kts 245°
2026-04-17 13:51 24.00891 -61.08251 38140 ft 442 kts 245°
2026-04-17 13:51 23.98159 -61.14288 38146 ft 442 kts 245°
2026-04-17 13:52 23.95424 -61.20324 38151 ft 443 kts 245°
2026-04-17 13:52 23.92693 -61.26340 38155 ft 439 kts 245°
2026-04-17 13:53 23.89993 -61.32283 38156 ft 440 kts 245°
2026-04-17 13:53 23.87262 -61.38289 38155 ft 444 kts 245°
2026-04-17 13:54 23.83135 -61.47345 38151 ft 443 kts 245°
2026-04-17 13:55 23.79472 -61.55369 38147 ft 443 kts 245°
2026-04-17 13:56 23.73970 -61.67397 38148 ft 440 kts 245°
2026-04-17 13:56 23.71236 -61.73361 38148 ft 439 kts 245°
2026-04-17 13:57 23.68499 -61.79327 38146 ft 440 kts 245°
2026-04-17 13:58 23.64408 -61.88228 38146 ft 440 kts 245°
2026-04-17 13:58 23.60281 -61.97193 38146 ft 444 kts 245°
2026-04-17 13:59 23.56110 -62.06233 38143 ft 444 kts 245°
2026-04-17 14:00 23.53342 -62.12222 38139 ft 439 kts 245°
2026-04-17 14:00 23.50588 -62.18176 38142 ft 440 kts 245°
2026-04-17 14:01 23.47827 -62.24138 38145 ft 442 kts 245°
2026-04-17 14:01 23.45040 -62.30149 38140 ft 446 kts 245°
2026-04-17 14:02 23.42246 -62.36163 38144 ft 445 kts 245°
2026-04-17 14:02 23.39467 -62.42141 38139 ft 445 kts 245°
2026-04-17 14:03 23.36668 -62.48154 38137 ft 445 kts 245°
2026-04-17 14:03 23.33863 -62.54172 38121 ft 445 kts 245°
2026-04-17 14:04 23.31053 -62.60193 38120 ft 446 kts 245°
2026-04-17 14:04 23.28258 -62.66177 38128 ft 447 kts 245°
2026-04-17 14:05 23.25436 -62.72210 38132 ft 448 kts 245°
2026-04-17 14:05 23.22611 -62.78240 38130 ft 448 kts 245°
2026-04-17 14:06 23.19774 -62.84288 38108 ft 449 kts 245°
2026-04-17 14:06 23.16925 -62.90354 38116 ft 451 kts 245°
2026-04-17 14:07 23.14069 -62.96431 38117 ft 451 kts 245°
2026-04-17 14:07 23.11231 -63.02460 38140 ft 451 kts 245°
2026-04-17 14:08 23.08370 -63.08530 38152 ft 451 kts 245°
2026-04-17 14:08 23.05510 -63.14589 38116 ft 451 kts 245°
2026-04-17 14:09 23.02638 -63.20668 38114 ft 453 kts 245°
2026-04-17 14:09 22.99759 -63.26756 38111 ft 454 kts 245°
2026-04-17 14:10 22.96869 -63.32857 38112 ft 454 kts 245°
2026-04-17 14:10 22.93974 -63.38962 38133 ft 455 kts 245°
2026-04-17 14:11 22.91080 -63.45056 38121 ft 454 kts 245°
2026-04-17 14:11 22.88181 -63.51154 38121 ft 455 kts 245°
2026-04-17 14:12 22.85274 -63.57261 38125 ft 456 kts 245°
2026-04-17 14:12 22.82360 -63.63375 38128 ft 456 kts 245°
2026-04-17 14:13 22.78002 -63.72506 38125 ft 456 kts 245°
2026-04-17 14:13 22.75078 -63.78621 38118 ft 458 kts 245°
2026-04-17 14:14 22.72143 -63.84756 38112 ft 458 kts 245°
2026-04-17 14:14 22.69209 -63.90879 38122 ft 458 kts 245°
2026-04-17 14:15 22.66274 -63.96996 38124 ft 458 kts 245°
2026-04-17 14:15 22.63334 -64.03114 38124 ft 458 kts 245°
2026-04-17 14:16 22.60391 -64.09233 38117 ft 459 kts 245°
2026-04-17 14:16 22.57444 -64.15354 38118 ft 459 kts 245°
2026-04-17 14:17 22.54486 -64.21488 38119 ft 459 kts 245°
2026-04-17 14:17 22.51546 -64.27579 38120 ft 459 kts 245°
2026-04-17 14:18 22.48585 -64.33705 38123 ft 460 kts 245°
2026-04-17 14:18 22.45621 -64.39829 38104 ft 460 kts 245°
2026-04-17 14:19 22.42644 -64.45978 38110 ft 461 kts 245°
2026-04-17 14:19 22.39664 -64.52127 38114 ft 462 kts 245°
2026-04-17 14:20 22.36680 -64.58278 38113 ft 462 kts 245°
2026-04-17 14:20 22.34199 -64.63386 38117 ft 462 kts 245°
2026-04-17 14:21 22.31148 -64.69660 38118 ft 462 kts 245°
2026-04-17 14:21 22.28157 -64.75807 38127 ft 461 kts 244°
2026-04-17 14:22 22.25163 -64.81948 38121 ft 461 kts 244°
2026-04-17 14:22 22.22174 -64.88071 38115 ft 461 kts 244°
2026-04-17 14:23 22.19200 -64.94158 38112 ft 460 kts 244°
2026-04-17 14:23 22.16208 -65.00274 38094 ft 461 kts 244°
2026-04-17 14:24 22.13214 -65.06387 38106 ft 461 kts 244°
2026-04-17 14:24 22.10095 -65.12446 38098 ft 463 kts 241°
2026-04-17 14:25 22.06490 -65.18203 38097 ft 465 kts 234°
2026-04-17 14:25 22.02597 -65.23775 38103 ft 464 kts 236°
2026-04-17 14:26 21.98759 -65.29368 38099 ft 464 kts 236°
2026-04-17 14:26 21.94930 -65.34931 38089 ft 465 kts 236°
2026-04-17 14:27 21.91066 -65.40530 38099 ft 466 kts 236°
2026-04-17 14:27 21.87195 -65.46132 38092 ft 466 kts 236°
2026-04-17 14:28 21.83317 -65.51737 38100 ft 466 kts 236°
2026-04-17 14:28 21.79556 -65.57169 38109 ft 465 kts 235°
2026-04-17 14:29 21.75685 -65.62753 38089 ft 466 kts 235°
2026-04-17 14:29 21.71807 -65.68342 38089 ft 467 kts 235°
2026-04-17 14:30 21.67919 -65.73940 38094 ft 467 kts 236°
2026-04-17 14:30 21.64023 -65.79543 38094 ft 467 kts 235°
2026-04-17 14:31 21.60128 -65.85140 38094 ft 467 kts 235°
2026-04-17 14:31 21.56252 -65.90704 38098 ft 467 kts 235°
2026-04-17 14:32 21.52349 -65.96299 38081 ft 467 kts 235°
2026-04-17 14:32 21.48447 -66.01889 38080 ft 468 kts 235°
2026-04-17 14:33 21.44404 -66.07377 38087 ft 470 kts 231°
2026-04-17 14:33 21.40091 -66.12658 38082 ft 470 kts 231°
2026-04-17 14:34 21.35824 -66.17912 38087 ft 470 kts 231°
2026-04-17 14:34 21.31526 -66.23199 38101 ft 469 kts 231°
2026-04-17 14:35 21.27225 -66.28480 38093 ft 470 kts 231°
2026-04-17 14:35 21.22920 -66.33762 38085 ft 471 kts 231°
2026-04-17 14:36 21.18606 -66.39051 38070 ft 471 kts 231°
2026-04-17 14:36 21.14289 -66.44338 38065 ft 471 kts 231°
2026-04-17 14:37 21.09989 -66.49599 38086 ft 471 kts 231°
2026-04-17 14:37 21.05669 -66.54879 38089 ft 471 kts 231°
2026-04-17 14:38 21.01348 -66.60155 38068 ft 471 kts 231°
2026-04-17 14:38 20.97019 -66.65437 38071 ft 472 kts 231°
2026-04-17 14:39 20.92689 -66.70714 38079 ft 472 kts 231°
2026-04-17 14:39 20.88348 -66.75999 38073 ft 472 kts 231°
2026-04-17 14:40 20.84035 -66.81246 38076 ft 472 kts 231°
2026-04-17 14:40 20.79695 -66.86520 38077 ft 472 kts 231°
2026-04-17 14:41 20.75352 -66.91794 38065 ft 473 kts 231°
2026-04-17 14:41 20.70999 -66.97074 38069 ft 473 kts 231°
2026-04-17 14:42 20.67350 -67.01497 38071 ft 474 kts 231°
2026-04-17 14:42 20.63022 -67.06738 38074 ft 474 kts 230°
2026-04-17 14:43 20.58654 -67.12022 38072 ft 474 kts 231°
2026-04-17 14:43 20.55000 -67.17812 38072 ft 469 kts 247°
2026-04-17 14:44 20.53111 -67.24416 38058 ft 464 kts 264°
2026-04-17 14:44 20.52334 -67.31256 38056 ft 465 kts 265°
2026-04-17 14:45 20.51522 -67.38107 38071 ft 465 kts 265°
2026-04-17 14:45 20.50704 -67.44925 38066 ft 466 kts 264°
2026-04-17 14:46 20.49881 -67.51785 38067 ft 466 kts 264°
2026-04-17 14:46 20.49054 -67.58658 38060 ft 467 kts 264°
2026-04-17 14:47 20.48225 -67.65522 38070 ft 467 kts 264°
2026-04-17 14:47 20.47397 -67.72362 38068 ft 467 kts 264°
2026-04-17 14:48 20.46562 -67.79233 38069 ft 467 kts 264°
2026-04-17 14:48 20.45723 -67.86107 38069 ft 467 kts 264°
2026-04-17 14:49 20.44883 -67.92976 38072 ft 467 kts 264°
2026-04-17 14:49 20.44040 -67.99848 38069 ft 467 kts 264°
2026-04-17 14:50 20.43193 -68.06723 38065 ft 467 kts 264°
2026-04-17 14:50 20.42343 -68.13592 38064 ft 467 kts 264°
2026-04-17 14:51 20.41497 -68.20416 38048 ft 467 kts 264°
2026-04-17 14:51 20.40641 -68.27287 38060 ft 467 kts 264°
2026-04-17 14:52 20.39782 -68.34167 38056 ft 467 kts 264°
2026-04-17 14:52 20.38922 -68.41037 38047 ft 468 kts 264°
2026-04-17 14:53 20.38205 -68.46750 38057 ft 468 kts 264°
2026-04-17 14:53 20.37664 -68.51048 38059 ft 468 kts 264°
2026-04-17 14:54 20.36796 -68.57920 38063 ft 468 kts 264°
2026-04-17 14:54 20.35925 -68.64798 38053 ft 468 kts 264°
2026-04-17 14:55 20.35051 -68.71675 38063 ft 468 kts 264°
2026-04-17 14:55 20.34175 -68.78556 38061 ft 468 kts 264°
2026-04-17 14:56 20.33297 -68.85423 38069 ft 468 kts 264°
2026-04-17 14:56 20.32413 -68.92307 38045 ft 469 kts 264°
2026-04-17 14:57 20.31529 -68.99172 37712 ft 465 kts 264°
2026-04-17 14:57 20.31090 -69.02581 37093 ft 466 kts 264°
2026-04-17 14:57 20.30647 -69.06013 36323 ft 468 kts 264°
2026-04-17 14:58 20.30208 -69.09417 35529 ft 471 kts 264°
2026-04-17 14:58 20.29760 -69.12879 34699 ft 474 kts 264°
2026-04-17 14:58 20.29308 -69.16365 33815 ft 477 kts 264°
2026-04-17 14:58 20.28851 -69.19876 32871 ft 479 kts 264°
2026-04-17 14:59 20.28390 -69.23415 31850 ft 484 kts 264°
2026-04-17 14:59 20.27925 -69.26970 30993 ft 484 kts 264°
2026-04-17 14:59 20.27462 -69.30514 30373 ft 481 kts 264°
2026-04-17 14:59 20.27001 -69.34023 29757 ft 476 kts 264°
2026-04-17 15:00 20.26546 -69.37495 29110 ft 471 kts 264°
2026-04-17 15:00 20.26095 -69.40935 28463 ft 467 kts 264°
2026-04-17 15:00 20.25647 -69.44346 27833 ft 463 kts 264°
2026-04-17 15:00 20.25203 -69.47725 27201 ft 459 kts 264°
2026-04-17 15:01 20.24761 -69.51079 26605 ft 455 kts 264°
2026-04-17 15:01 20.24323 -69.54402 25966 ft 452 kts 264°
2026-04-17 15:01 20.23886 -69.57708 25325 ft 450 kts 264°
2026-04-17 15:01 20.23458 -69.60948 24761 ft 446 kts 264°
2026-04-17 15:02 20.23021 -69.64245 24165 ft 442 kts 264°
2026-04-17 15:02 20.22597 -69.67437 23582 ft 439 kts 264°
2026-04-17 15:02 20.22170 -69.70649 22914 ft 436 kts 263°
2026-04-17 15:02 20.21746 -69.73830 22270 ft 431 kts 263°
2026-04-17 15:03 20.21326 -69.76980 21639 ft 427 kts 263°
2026-04-17 15:03 20.20909 -69.80105 20959 ft 424 kts 263°
2026-04-17 15:03 20.20495 -69.83198 20285 ft 421 kts 263°
2026-04-17 15:03 20.20085 -69.86270 19692 ft 416 kts 263°
2026-04-17 15:04 20.19678 -69.89314 18996 ft 414 kts 263°
2026-04-17 15:04 20.19270 -69.92340 18501 ft 408 kts 263°
2026-04-17 15:04 20.18873 -69.95272 18314 ft 392 kts 263°
2026-04-17 15:04 20.18497 -69.98084 18147 ft 376 kts 263°
2026-04-17 15:05 20.18134 -70.00783 17691 ft 362 kts 263°
2026-04-17 15:05 20.17775 -70.03379 16932 ft 357 kts 261°
2026-04-17 15:05 20.17089 -70.05932 15896 ft 363 kts 248°
2026-04-17 15:05 20.15877 -70.08306 14807 ft 367 kts 235°
2026-04-17 15:06 20.14448 -70.10576 13742 ft 371 kts 235°
2026-04-17 15:06 20.13026 -70.12875 12612 ft 373 kts 235°
2026-04-17 15:06 20.11639 -70.15144 12140 ft 356 kts 236°
2026-04-17 15:06 20.10340 -70.17280 11918 ft 332 kts 236°
2026-04-17 15:07 20.09124 -70.19285 11615 ft 312 kts 235°
2026-04-17 15:07 20.07951 -70.21214 10971 ft 308 kts 235°
2026-04-17 15:07 20.06793 -70.23115 10349 ft 305 kts 236°
2026-04-17 15:07 20.05644 -70.25001 9799 ft 304 kts 235°
2026-04-17 15:08 20.04516 -70.26853 9294 ft 300 kts 235°
2026-04-17 15:08 20.03377 -70.28724 9088 ft 298 kts 235°
2026-04-17 15:08 20.02256 -70.30560 9031 ft 299 kts 235°
2026-04-17 15:08 20.01124 -70.32419 9026 ft 301 kts 235°
2026-04-17 15:09 19.99984 -70.34288 9021 ft 301 kts 235°
2026-04-17 15:09 19.98845 -70.36147 9017 ft 299 kts 235°
2026-04-17 15:09 19.97708 -70.38012 9020 ft 300 kts 235°
2026-04-17 15:09 19.96574 -70.39874 9015 ft 300 kts 235°
2026-04-17 15:10 19.95438 -70.41740 9013 ft 302 kts 235°
2026-04-17 15:10 19.94300 -70.43602 9012 ft 300 kts 235°
2026-04-17 15:10 19.93178 -70.45436 9010 ft 299 kts 235°
2026-04-17 15:11 19.90901 -70.49163 9008 ft 301 kts 235°
2026-04-17 15:11 19.89768 -70.51016 8960 ft 297 kts 235°
2026-04-17 15:11 19.88663 -70.52823 8885 ft 285 kts 235°
2026-04-17 15:11 19.87613 -70.54545 8768 ft 269 kts 235°
2026-04-17 15:12 19.86615 -70.56182 8340 ft 262 kts 235°
2026-04-17 15:12 19.85626 -70.57795 7833 ft 260 kts 234°
2026-04-17 15:12 19.84642 -70.59399 7339 ft 258 kts 234°
2026-04-17 15:12 19.83674 -70.60979 6905 ft 254 kts 234°
2026-04-17 15:13 19.82710 -70.62552 6437 ft 253 kts 234°
2026-04-17 15:13 19.81748 -70.64125 5864 ft 255 kts 234°
2026-04-17 15:13 19.80790 -70.65688 5457 ft 250 kts 234°
2026-04-17 15:13 19.79884 -70.67263 5028 ft 248 kts 241°
2026-04-17 15:14 19.79322 -70.68911 4904 ft 234 kts 252°
2026-04-17 15:14 19.78881 -70.70531 4824 ft 224 kts 252°
2026-04-17 15:14 19.78442 -70.72087 4743 ft 213 kts 251°
2026-04-17 15:14 19.78009 -70.73549 4658 ft 201 kts 250°
2026-04-17 15:15 19.77609 -70.74925 4565 ft 189 kts 251°
2026-04-17 15:15 19.77250 -70.76203 4427 ft 175 kts 251°
2026-04-17 15:15 19.76892 -70.77450 3969 ft 180 kts 251°
2026-04-17 15:15 19.76507 -70.78768 3423 ft 196 kts 250°
2026-04-17 15:16 19.76096 -70.80131 3060 ft 185 kts 251°
2026-04-17 15:16 19.75742 -70.81353 3002 ft 164 kts 250°
2026-04-17 15:16 19.75152 -70.82413 3041 ft 171 kts 217°
2026-04-17 15:16 19.74115 -70.82869 2957 ft 152 kts 174°
2026-04-17 15:17 19.73132 -70.82567 3195 ft 150 kts 152°
2026-04-17 15:17 19.72156 -70.82027 3020 ft 161 kts 150°
2026-04-17 15:17 19.71152 -70.81539 2998 ft 167 kts 153°
2026-04-17 15:17 19.70080 -70.81051 2974 ft 167 kts 147°
2026-04-17 15:18 19.69365 -70.80145 3037 ft 169 kts 113°
2026-04-17 15:18 19.69300 -70.78899 3045 ft 171 kts 76°
2026-04-17 15:18 19.69695 -70.77703 2981 ft 167 kts 71°
2026-04-17 15:18 19.70109 -70.76561 2986 ft 167 kts 72°
2026-04-17 15:19 19.70485 -70.75430 2997 ft 162 kts 74°
2026-04-17 15:19 19.70860 -70.74284 2874 ft 166 kts 73°
2026-04-17 15:19 19.71273 -70.73160 2765 ft 157 kts 70°
2026-04-17 15:19 19.71691 -70.72116 2539 ft 154 kts 71°
2026-04-17 15:20 19.72014 -70.71012 2218 ft 154 kts 75°
2026-04-17 15:20 19.72323 -70.69940 1850 ft 151 kts 78°
2026-04-17 15:20 19.72580 -70.68883 1662 ft 158 kts 76°
2026-04-17 15:20 19.72880 -70.67687 1590 ft 163 kts 76°
2026-04-17 15:21 19.73111 -70.66570 1502 ft 149 kts 79°
2026-04-17 15:21 19.73355 -70.65507 1415 ft 147 kts 76°
2026-04-17 15:21 19.73630 -70.64458 1239 ft 150 kts 74°
2026-04-17 15:21 19.73946 -70.63407 837 ft 146 kts 73°
2026-04-17 15:22 19.74256 -70.62374 651 ft 160 kts 73°
2026-04-17 15:22 19.74604 -70.61178 677 ft 170 kts 74°
2026-04-17 15:22 19.74931 -70.60038 496 ft 154 kts 73°
2026-04-17 15:22 19.75220 -70.58978 224 ft 145 kts 73°
2026-04-17 15:23 19.75524 -70.57906 43 ft 146 kts 70°
2026-04-17 15:23 19.75774 -70.57042 39 ft 98 kts 73°
2026-04-17 15:23 19.75926 -70.56507 43 ft 55 kts 73°
2026-04-17 15:23 19.75944 -70.56423 42 ft 13 kts 72°
2026-04-17 15:24 19.75987 -70.56277 42 ft 0 kts 71°
2026-04-17 15:24 19.75988 -70.56273 42 ft 4 kts 71°
2026-04-17 15:24 19.76028 -70.56141 41 ft 28 kts 72°
2026-04-17 15:24 19.76088 -70.55945 42 ft 27 kts 72°
2026-04-17 15:25 19.76142 -70.55761 42 ft 24 kts 73°
2026-04-17 15:25 19.76155 -70.55629 42 ft 13 kts 64°
2026-04-17 15:25 19.76182 -70.55628 43 ft 2 kts 332°
2026-04-17 15:25 19.76179 -70.55667 43 ft 19 kts 258°
2026-04-17 15:26 19.76127 -70.55817 42 ft 23 kts 253°
2026-04-17 15:26 19.76078 -70.55985 40 ft 25 kts 252°
2026-04-17 15:26 19.76044 -70.56102 41 ft 25 kts 253°
2026-04-17 15:26 19.75994 -70.56281 42 ft 25 kts 251°
2026-04-17 15:27 19.75961 -70.56390 42 ft 7 kts 253°
2026-04-17 15:27 19.75933 -70.56424 42 ft 5 kts 194°
2026-04-17 15:27 19.75895 -70.56426 42 ft 5 kts 166°
2026-04-17 15:27 19.75854 -70.56411 42 ft 8 kts 161°
2026-04-17 15:28 19.75787 -70.56388 41 ft 13 kts 162°
2026-04-17 15:28 19.75694 -70.56383 41 ft 14 kts 202°
2026-04-17 15:28 19.75621 -70.56420 40 ft 0 kts 207°
2026-04-17 15:28 19.75625 -70.56418 40 ft 0 kts 207°